GFSFLT1_sfc_rhum_018.txt.gz
RH
58 60 69 80 85 92 94 93 92 78 65 65 73 69 68 66 65 62 58 60 60 63 68 69 72 70 73 75 74 74 79 80
56 59 57 60 64 71 79 79 70 65 60 65 69 69 62 64 65 62 62 59 58 59 65 70 74 77 78 75 79 78 80 83
57 64 75 78 73 77 65 56 58 58 63 79 76 69 70 70 62 56 58 60 57 53 70 73 77 77 74 76 79 88 89 83
58 60 72 66 63 57 51 52 52 57 59 58 60 60 66 70 68 66 62 58 60 65 68 73 76 78 84 87 90 90 94 90
55 59 63 66 65 59 55 51 50 51 56 59 63 71 67 74 75 69 65 66 65 63 69 74 80 88 88 90 82 93 92 95
60 55 57 58 57 57 57 53 53 56 58 62 70 66 75 75 73 68 64 68 67 68 73 80 85 88 89 94 93 92 95 94
59 58 58 60 63 58 59 56 56 57 64 65 66 71 72 73 69 69 66 69 78 76 74 83 85 87 88 91 91 89 92 92
61 58 61 64 67 63 61 60 65 68 71 70 70 71 71 64 61 62 69 74 80 77 80 86 88 87 85 86 87 81 82 80
57 56 60 61 64 66 65 61 62 64 69 66 68 69 66 61 59 65 76 80 76 74 79 81 83 82 85 88 92 93 91 95
57 59 64 66 66 68 63 62 63 62 63 65 66 70 62 62 67 79 81 76 65 72 79 80 81 80 84 88 93 92 93 94
58 58 59 64 71 71 67 62 59 62 63 62 59 63 67 69 79 78 74 72 72 74 70 73 73 73 76 82 89 88 93 92
62 58 58 61 63 60 62 62 62 64 59 61 61 61 67 76 74 73 72 74 71 64 69 63 59 59 63 69 71 75 72 73
59 60 61 60 58 53 53 56 58 61 61 62 60 63 63 67 70 71 75 66 64 67 60 53 57 58 61 63 69 70 71 72
62 63 62 59 55 53 55 55 54 56 62 60 58 62 62 66 67 71 68 68 67 62 55 54 54 59 61 65 67 71 72 72
63 64 62 56 55 55 50 48 55 63 63 64 69 75 79 78 71 78 84 86 82 67 55 55 60 60 62 63 65 73 74 71
61 62 64 57 54 47 45 48 53 58 57 62 78 80 76 77 83 88 89 83 82 61 54 59 63 62 57 74 72 75 77 78
62 61 57 55 46 43 42 43 44 49 52 78 76 78 80 82 86 89 91 89 59 51 59 66 68 53 74 71 75 84 79 78
61 58 57 44 42 40 39 40 42 47 68 70 79 80 84 88 89 90 86 84 66 64 67 66 75 73 74 76 82 84 88 89
56 53 41 41 38 36 40 38 41 56 69 73 77 82 85 86 90 90 88 70 65 67 77 81 78 70 80 80 78 93 94 91

GFSFLT1_sfc_rhum_021.txt.gz
RH
80 92 93 95 92 93 92 93 90 77 74 69 74 63 66 69 69 65 62 63 65 63 69 76 78 76 74 74 76 76 78 83
70 73 79 79 87 87 89 88 78 61 74 67 71 78 80 83 64 56 57 58 60 69 73 74 78 76 79 78 84 84 87 89
69 72 78 87 84 80 65 61 60 60 66 82 85 83 75 68 59 58 58 62 61 62 72 75 78 81 84 87 92 94 95 93
75 74 78 73 63 58 56 56 57 63 73 71 66 65 73 74 71 66 66 66 66 72 75 79 85 89 92 94 94 92 96 94
68 66 64 62 62 60 54 54 55 58 61 60 62 64 70 78 76 71 72 71 73 71 76 79 89 91 93 95 88 95 95 96
64 63 61 62 64 64 63 59 58 60 63 67 74 70 80 80 74 70 67 69 73 68 72 77 83 86 89 90 93 93 95 96
66 63 60 64 70 71 71 68 73 69 71 71 73 76 74 71 64 62 65 74 78 74 78 84 85 86 86 89 90 88 91 93
74 63 61 62 70 72 69 67 68 69 70 70 70 71 67 63 64 68 79 83 83 75 83 86 87 86 86 89 90 91 92 95
64 62 66 69 71 70 68 63 64 69 67 67 69 68 70 69 68 75 80 83 78 76 80 86 86 86 88 90 93 94 93 95
67 70 72 72 72 72 70 66 65 65 67 69 72 74 74 74 74 78 85 80 70 73 79 81 77 82 79 84 93 91 93 94
67 68 72 70 66 68 66 66 63 64 68 68 65 71 75 77 78 82 83 79 74 72 70 75 73 66 67 73 77 79 86 81
65 61 63 64 58 55 60 62 62 67 67 69 71 69 69 76 83 81 80 75 72 70 71 74 61 63 63 67 68 75 71 74
62 57 56 56 56 56 56 57 53 60 67 66 64 67 69 72 78 77 80 80 75 73 69 65 61 61 62 65 68 70 72 73
68 67 61 60 58 53 55 54 59 68 63 63 65 75 81 79 80 77 76 77 82 80 80 72 63 63 63 66 69 70 72 75
67 67 63 58 56 56 48 50 57 58 52 63 75 81 80 78 77 77 82 89 86 83 86 67 67 64 63 64 66 72 76 74
64 64 61 60 57 47 45 46 47 53 56 72 76 77 79 82 83 87 92 91 87 90 75 64 67 62 58 70 72 76 79 81
59 60 59 53 44 41 40 41 45 50 64 74 79 83 86 87 91 92 93 88 74 82 63 69 69 55 73 74 84 91 83 83
60 62 58 46 42 40 39 41 46 49 69 71 79 82 83 86 90 93 94 91 90 75 72 74 77 78 78 80 77 88 91 94
60 50 42 44 40 38 42 42 47 54 71 75 80 83 86 87 93 95 90 86 81 79 84 78 83 79 70 65 82 91 90 86

GFSFLT1_sfc_rhum_024.txt.gz
RH
89 95 97 97 95 94 97 95 95 95 85 83 83 71 73 76 69 73 61 61 65 65 66 75 77 75 80 82 81 82 82 88
87 93 95 94 94 92 93 96 95 70 84 79 82 78 85 91 69 60 60 62 65 72 76 78 82 83 86 87 90 91 90 94
82 90 94 94 93 92 88 83 75 70 81 88 87 90 75 64 64 70 68 69 70 69 77 81 85 83 84 91 92 93 93 95
88 89 92 82 70 64 60 62 63 71 78 80 77 78 78 74 72 71 72 71 71 72 76 82 86 87 88 94 94 94 97 94
73 69 63 66 67 64 63 62 64 64 65 65 68 75 81 86 77 75 74 71 72 70 76 78 83 87 90 93 89 95 94 97
65 63 63 70 70 72 68 64 65 68 71 75 80 86 84 78 74 68 66 68 69 72 76 79 82 86 88 88 91 91 95 95
65 65 65 72 69 67 73 68 73 72 73 73 77 76 75 73 72 67 72 80 86 77 78 84 85 86 86 89 89 89 92 94
76 68 68 67 70 75 73 73 73 71 69 70 72 72 71 68 69 73 76 84 89 79 85 87 88 86 86 89 91 91 92 94
75 67 69 75 73 72 68 64 69 69 69 70 72 70 74 74 73 77 81 85 85 77 81 87 86 85 87 89 92 93 90 93
72 74 76 76 74 73 71 68 67 67 68 72 74 79 80 82 81 83 86 87 75 75 74 76 76 78 87 84 93 88 85 89
76 77 75 73 71 70 66 65 64 68 75 76 72 73 72 75 82 84 86 85 78 72 73 77 80 82 75 75 76 76 84 88
74 74 71 63 60 55 58 60 58 64 74 74 72 70 71 75 83 86 83 80 76 80 80 82 81 68 69 71 71 72 81 76
68 65 61 58 56 56 55 54 53 70 68 60 62 70 78 78 77 79 81 82 83 84 76 75 75 77 70 66 72 70 74 72
73 70 64 59 61 60 51 54 65 61 54 56 66 78 80 79 79 80 80 84 85 85 81 81 81 72 68 70 71 70 70 75
70 71 65 63 61 52 48 51 54 52 50 63 73 77 79 81 83 83 86 88 92 88 86 87 72 66 66 66 66 73 77 76
67 67 65 60 54 48 44 45 47 52 51 68 75 82 84 87 87 89 92 94 93 82 72 65 69 64 59 71 76 86 88 86
62 60 57 52 47 43 42 42 46 52 55 75 81 81 81 84 88 92 94 95 80 86 74 75 78 62 78 80 84 92 87 85
57 56 55 47 43 41 40 42 48 52 60 72 77 80 84 87 90 94 95 92 89 87 80 80 81 88 75 67 75 80 80 80
59 55 45 46 43 40 45 45 50 54 72 75 79 83 88 90 92 93 94 89 89 84 85 82 85 73 65 64 66 86 87 80

GFSFLT1_sfc_rhum_027.txt.gz
RH
85 86 81 80 76 80 83 85 95 94 86 83 76 75 63 56 58 73 67 53 54 50 51 56 50 49 52 52 54 46 50 53
84 88 86 83 82 82 84 95 97 88 77 74 70 65 71 76 54 50 51 50 51 53 48 51 53 52 57 57 51 54 44 55
87 84 81 78 81 82 80 76 67 66 52 54 58 62 57 48 49 53 51 53 49 48 54 54 56 47 56 60 63 53 51 60
83 82 79 78 75 74 71 65 53 51 58 57 57 55 51 47 47 47 49 51 50 54 56 55 56 53 53 60 63 65 54 55
74 73 61 55 56 56 57 59 52 56 56 51 56 50 52 57 52 48 46 55 54 52 54 57 59 55 56 54 54 61 58 52
58 49 48 50 54 55 54 52 51 54 56 58 56 59 55 51 51 54 54 55 55 55 56 59 58 53 58 57 59 58 54 55
50 50 50 49 53 57 61 56 56 56 55 58 59 59 56 50 51 50 50 52 56 60 57 60 60 59 60 57 62 65 60 59
52 50 49 54 59 60 58 52 53 53 55 54 55 55 54 52 52 52 56 53 55 61 62 65 60 62 61 59 63 64 62 54
55 54 54 56 57 54 53 50 50 50 51 51 56 58 54 54 57 56 57 58 59 62 61 61 62 62 61 63 62 61 64 57
56 57 58 58 55 57 56 50 49 51 54 56 58 57 58 56 58 61 61 65 59 64 61 59 59 62 62 64 60 60 57 55
59 57 60 56 54 57 56 51 48 51 55 57 55 54 51 53 58 60 62 62 62 62 60 60 60 64 62 58 53 50 56 53
59 57 55 49 47 46 47 45 44 51 53 55 49 47 51 52 54 56 57 60 52 58 61 62 62 60 56 62 57 52 54 54
56 55 49 45 44 44 44 41 46 51 43 40 43 48 50 49 51 52 55 55 58 62 63 60 61 63 61 62 53 52 54 55
52 51 48 46 46 48 40 46 50 38 32 34 40 48 50 52 53 54 53 59 65 67 65 68 72 72 53 52 54 54 52 54
52 50 46 47 48 44 41 41 40 36 32 36 46 56 57 56 57 56 61 66 71 72 73 63 65 51 51 52 52 56 60 60
52 51 50 48 49 42 37 36 36 36 38 39 53 60 60 59 59 63 67 72 71 68 66 60 56 52 48 59 61 60 58 54
49 50 52 49 46 39 37 34 35 38 40 44 57 63 59 59 65 69 70 71 67 67 69 64 60 54 80 70 65 55 52 48
50 52 48 45 39 38 34 31 36 40 42 49 58 62 60 64 63 61 62 73 71 67 63 60 62 62 66 64 65 53 50 49
50 49 45 39 34 33 35 32 37 42 45 56 59 60 62 61 62 59 61 69 68 69 64 61 60 52 64 63 65 52 53 51

GFSFLT1_sfc_rhum_033.txt.gz
RH
31 29 23 25 35 48 52 57 65 74 78 85 70 68 62 59 51 47 50 43 45 42 43 48 43 38 39 42 45 36 33 30
39 34 30 33 43 50 54 67 68 63 56 54 54 55 46 48 43 45 45 41 41 43 38 41 42 37 43 44 40 40 35 34
42 43 42 43 48 58 62 63 62 54 45 45 43 42 42 38 38 43 40 41 39 38 44 39 39 38 39 39 45 42 37 36
44 45 46 51 54 59 65 60 58 48 42 39 39 41 42 39 40 39 38 40 37 38 39 40 39 36 34 41 42 44 42 39
41 45 54 56 62 62 53 49 43 40 39 38 41 35 36 36 36 36 38 40 38 35 34 38 41 40 43 41 34 44 44 43
42 47 50 47 49 48 42 41 36 38 39 37 40 38 40 39 39 43 42 40 39 34 35 40 43 40 42 45 47 46 41 42
40 39 38 38 44 46 44 37 35 38 39 41 42 46 40 37 36 35 28 28 28 31 31 37 41 41 43 43 45 47 46 50
34 32 30 35 42 45 43 35 36 39 42 43 44 41 37 34 31 30 33 31 30 32 36 41 38 40 40 41 52 54 50 54
29 28 29 33 38 39 37 36 37 40 40 37 34 30 30 30 32 33 30 31 32 36 36 36 38 38 38 41 48 53 54 58
28 28 30 34 37 40 40 37 35 37 35 32 35 34 36 33 31 32 31 34 27 30 34 34 34 35 37 40 45 54 54 57
29 28 33 34 37 41 41 37 34 33 32 34 35 41 33 28 31 32 32 32 32 34 35 34 37 38 38 40 42 49 55 63
30 31 33 36 37 41 40 33 30 30 31 36 41 33 29 30 30 30 30 34 34 33 34 37 38 37 37 46 49 54 52 51
28 32 35 37 39 38 35 31 28 30 32 34 36 29 26 28 29 29 32 35 35 34 36 37 37 40 48 53 51 46 50 51
28 32 36 38 38 35 32 30 29 30 32 31 26 26 27 29 28 31 34 36 35 36 38 39 41 44 47 48 47 49 50 50
30 33 36 36 35 33 31 30 32 35 27 27 24 26 30 29 30 34 37 36 38 39 40 40 44 42 42 44 45 45 49 45
33 35 36 34 34 32 29 31 36 33 35 24 25 28 30 31 35 38 39 39 39 40 39 42 48 48 40 50 46 45 41 39
32 34 34 34 33 32 30 34 36 38 29 26 27 28 28 33 37 40 39 38 38 40 41 44 46 40 76 65 60 47 43 38
32 33 34 33 31 32 34 36 35 29 26 26 27 28 32 35 33 33 35 40 42 43 44 46 53 51 67 62 61 47 44 42
30 32 33 31 30 32 32 28 28 28 27 26 25 31 33 33 34 35 39 41 44 44 47 49 54 49 68 62 62 51 45 45

GFSFLT1_sfc_rhum_036.txt.gz
RH
24 26 29 33 43 54 57 70 82 87 86 84 76 76 73 74 71 66 62 60 63 65 68 69 66 62 65 67 68 62 61 59
33 36 37 40 56 59 64 77 81 78 72 74 70 73 65 66 60 61 61 59 55 58 64 62 60 64 63 60 62 64 65 62
42 41 40 48 60 64 73 72 77 67 59 63 65 63 62 59 59 61 57 57 54 56 60 60 61 61 60 63 65 69 65 65
45 44 50 56 64 67 74 73 71 66 64 54 56 58 63 59 60 61 58 54 51 51 54 56 60 61 64 67 66 65 68 65
42 48 50 54 71 73 71 71 62 61 56 54 59 54 56 56 57 57 56 55 52 47 48 53 60 64 66 68 53 69 67 70
39 46 49 59 74 81 73 66 59 55 51 54 59 58 62 60 62 64 59 64 58 52 52 57 61 65 67 69 70 71 69 72
38 44 52 57 63 66 72 66 48 50 52 53 58 61 58 61 60 61 56 52 51 52 51 62 63 64 66 68 67 67 71 74
42 48 52 53 56 58 56 46 45 50 55 56 60 60 54 50 49 50 51 50 53 58 58 59 60 59 61 64 67 71 73 75
44 43 43 46 53 54 51 43 44 48 56 56 55 50 50 46 54 52 50 51 55 52 51 54 54 55 58 61 68 70 71 77
38 36 39 44 48 55 55 44 42 49 54 52 53 50 51 56 52 47 51 50 39 52 54 54 54 56 60 62 65 68 71 78
34 32 39 41 45 52 56 51 45 49 47 53 49 53 50 51 44 47 46 47 46 50 53 52 54 57 58 62 68 67 75 82
33 32 34 39 44 48 52 48 43 44 43 49 55 51 51 45 46 46 44 46 47 48 48 51 52 54 60 66 69 67 67 69
31 32 36 39 44 46 50 49 43 42 43 50 52 48 47 46 44 43 46 47 49 48 49 49 51 53 58 60 68 63 64 66
31 33 36 40 44 48 47 47 41 37 38 43 45 46 42 42 43 43 44 47 49 50 48 54 54 56 55 57 60 62 63 63
29 31 37 41 43 46 44 44 42 39 39 41 42 44 43 41 41 44 48 49 50 51 53 54 57 55 54 54 53 60 63 57
29 32 41 41 44 44 41 41 42 43 44 42 47 42 39 42 46 48 52 54 50 52 54 57 56 54 48 62 58 61 63 60
30 34 35 39 41 41 40 41 44 44 49 46 40 39 37 43 48 53 55 55 51 53 55 57 58 44 77 70 64 64 61 60
29 33 36 40 41 43 44 40 44 49 44 42 37 37 38 46 44 44 47 53 57 59 61 60 61 68 76 68 64 60 66 68
27 32 37 38 39 40 42 38 44 42 39 38 38 36 40 42 46 47 52 54 59 62 63 63 64 62 78 70 65 65 69 66

GFSFLT1_sfc_rhum_039.txt.gz
RH
38 40 41 52 65 59 81 82 91 95 95 97 97 96 96 91 89 82 71 70 70 77 77 70 70 72 72 70 68 68 66 69
35 39 49 57 68 70 82 89 96 94 97 98 94 95 90 84 77 68 69 68 64 75 78 74 69 69 66 67 69 66 69 73
46 45 57 59 68 81 86 85 90 85 87 87 81 79 78 74 71 73 68 65 66 62 66 67 64 64 68 68 69 74 72 70
51 49 68 69 69 84 86 89 86 80 80 75 78 75 80 77 77 73 65 64 59 60 61 62 62 66 66 69 69 71 72 71
51 55 70 75 87 83 80 83 81 76 80 64 68 76 72 73 75 73 68 59 56 53 57 61 66 70 68 73 64 74 75 75
54 59 64 81 86 88 85 83 74 79 76 57 66 76 74 80 77 72 68 64 60 57 64 69 68 73 74 75 76 81 80 79
54 58 77 84 83 84 84 87 85 77 58 66 71 71 71 67 69 71 70 73 67 62 59 64 66 65 66 70 71 74 76 79
64 72 72 80 88 89 90 87 73 60 58 68 70 68 67 66 67 64 61 56 61 60 53 59 62 63 64 66 70 74 80 83
63 64 70 77 80 83 79 65 54 64 67 69 63 52 56 63 61 59 58 59 56 51 56 56 57 58 62 64 70 72 76 88
64 64 66 70 65 72 61 57 59 65 69 62 54 60 61 61 57 54 58 53 46 54 54 52 54 58 60 62 76 78 81 84
56 55 63 65 65 69 66 63 64 67 62 60 58 58 56 59 53 49 50 49 49 52 51 53 55 58 63 71 75 75 79 84
52 51 55 58 62 64 63 64 65 60 54 57 65 61 67 48 48 50 49 51 48 51 49 52 53 58 62 66 70 69 74 75
46 46 52 55 59 63 64 64 56 46 51 58 59 57 49 48 49 48 50 49 51 48 51 52 56 60 58 63 68 68 68 71
45 45 48 54 58 60 63 63 54 46 49 50 50 54 48 49 48 51 51 52 54 50 51 57 60 61 58 61 60 67 68 67
43 43 45 46 50 55 60 59 50 50 47 50 54 53 46 46 49 45 55 54 53 51 55 59 65 61 56 58 58 69 67 63
44 46 59 62 66 66 61 58 55 46 49 47 55 54 53 51 50 53 58 55 50 53 57 62 64 61 54 67 61 65 64 64
42 60 64 60 66 64 58 49 51 49 49 52 57 59 54 53 54 54 56 56 55 57 58 61 64 50 78 72 67 66 62 64
37 41 53 59 62 61 59 53 52 55 51 52 54 54 50 51 47 48 50 52 56 59 61 65 67 72 80 75 70 63 64 68
36 40 48 58 62 55 56 53 56 48 48 52 56 55 50 55 54 55 55 59 60 66 66 65 68 73 82 78 73 68 69 74

GFSFLT1_sfc_rhum_042.txt.gz
RH
59 56 58 60 68 60 85 81 92 96 95 97 98 98 97 96 92 84 78 76 75 81 78 78 78 77 75 76 69 71 70 70
51 51 55 61 67 79 84 89 95 90 92 97 98 98 96 94 90 78 73 75 77 80 81 76 73 69 71 71 70 67 72 74
49 50 56 62 72 83 84 84 91 88 89 96 93 95 91 87 83 76 76 74 73 69 73 69 67 70 69 69 69 76 77 75
49 57 62 63 80 88 86 87 87 87 89 90 87 82 84 84 85 84 76 73 67 67 68 70 68 69 70 71 72 74 74 76
48 60 64 69 87 86 86 87 88 85 88 86 78 72 76 82 83 79 76 70 65 62 64 68 72 76 74 79 73 80 82 82
53 68 62 67 90 93 92 90 84 75 83 76 73 78 79 83 83 78 75 68 67 66 70 74 75 77 74 66 66 76 85 83
51 72 72 81 92 93 94 87 80 79 83 72 75 74 80 81 84 78 79 80 71 67 62 66 66 66 66 71 74 73 80 86
77 90 86 93 93 94 92 84 85 86 84 73 77 75 75 74 74 82 76 70 67 61 60 61 61 60 63 64 66 70 76 87
74 82 89 88 91 92 89 86 87 78 74 75 73 68 72 74 64 61 64 64 62 58 59 56 56 60 62 68 72 80 86 88
73 78 85 89 90 93 92 88 73 78 83 71 59 65 58 60 61 65 62 60 54 59 55 56 56 57 64 72 78 80 83 86
79 80 86 87 84 84 80 75 71 75 65 63 64 64 64 66 68 64 58 58 57 55 52 52 52 57 70 71 74 73 76 85
70 73 76 75 77 73 72 64 67 62 55 69 71 76 75 62 64 62 61 58 55 56 58 52 52 60 66 67 71 72 74 75
60 65 68 70 69 68 67 66 71 64 56 59 63 60 51 56 57 54 58 54 58 60 56 54 56 62 63 64 70 70 70 72
57 60 63 63 64 65 66 69 64 56 57 52 52 51 51 57 59 58 60 59 59 56 55 55 59 66 63 66 67 69 72 70
53 51 55 57 60 62 67 68 59 65 56 50 54 57 54 56 56 58 59 61 59 55 56 60 65 67 64 63 60 71 72 63
55 57 60 68 72 72 74 71 68 64 59 55 66 63 60 61 64 64 66 62 56 57 60 61 65 66 60 67 66 71 68 66
60 58 64 70 74 75 78 78 73 68 66 71 71 64 55 59 61 62 62 59 57 56 55 65 66 59 70 77 74 71 64 65
53 67 68 73 75 78 83 70 66 64 59 61 59 58 61 64 57 58 55 54 53 56 66 67 70 71 77 81 77 68 66 68
62 67 70 72 65 67 65 62 60 59 60 60 58 60 60 63 66 63 69 61 63 66 68 71 73 68 83 82 79 69 71 69

GFSFLT1_sfc_rhum_045.txt.gz
RH
78 78 76 66 79 72 78 88 95 96 97 97 98 98 98 97 91 87 83 80 77 82 82 82 79 78 79 74 71 75 72 69
72 77 72 75 80 87 88 94 97 93 94 96 98 98 98 97 93 82 80 77 80 81 82 82 76 72 75 68 72 69 77 77
72 71 71 73 74 88 93 90 95 90 87 97 95 97 96 93 89 83 78 82 81 79 78 75 71 75 71 71 72 80 78 77
70 66 70 72 76 88 89 90 91 88 88 93 96 92 92 91 90 85 84 79 78 74 73 73 71 73 74 74 76 75 76 80
62 61 66 70 72 77 80 87 89 88 88 88 90 88 95 92 87 86 83 79 72 69 69 73 75 79 78 82 77 83 83 81
57 59 60 64 75 88 88 93 90 85 85 90 95 93 90 87 87 83 83 79 73 71 74 77 78 78 74 71 70 78 86 84
53 57 65 68 94 95 96 95 92 85 85 90 93 94 89 90 89 88 85 82 79 74 69 72 69 69 68 69 66 65 74 83
72 81 72 83 96 96 96 95 92 87 80 85 90 90 86 87 84 84 84 76 74 69 66 68 63 63 67 65 65 68 77 82
79 76 81 90 93 94 94 94 91 86 87 87 90 88 81 78 77 78 72 64 64 63 65 69 67 59 62 64 72 82 80 85
74 84 89 93 91 93 94 94 89 93 90 91 92 92 85 81 74 74 72 64 60 71 77 66 62 59 60 69 82 78 83 86
86 87 91 93 92 93 95 95 94 92 87 84 81 82 69 70 73 71 63 66 75 71 64 66 64 63 69 77 77 76 79 86
85 84 87 92 94 96 95 94 87 84 70 76 78 75 70 66 65 65 65 66 63 65 74 64 62 63 74 74 74 75 76 78
81 82 89 92 90 88 88 86 82 76 71 77 80 72 65 64 62 63 61 66 67 73 69 62 59 64 71 70 71 70 75 77
77 84 85 83 83 80 79 84 86 77 75 77 78 73 68 70 68 63 72 74 71 67 63 60 60 67 69 70 73 76 77 76
72 75 80 82 81 86 86 90 84 74 71 70 74 73 78 77 71 66 66 65 63 58 58 60 64 65 68 69 69 74 78 77
68 67 70 76 84 88 86 86 82 72 72 75 82 71 67 66 66 70 71 65 60 58 58 64 67 69 66 72 69 76 80 77
63 65 65 75 83 90 87 84 86 81 82 77 71 67 64 70 70 70 65 60 52 62 74 65 68 62 71 77 78 82 76 74
67 79 80 86 90 90 86 81 76 75 72 68 64 65 66 68 68 69 70 81 86 83 69 69 71 74 79 79 83 82 80 77
66 73 75 79 79 76 71 68 69 67 62 62 67 71 73 72 73 83 90 89 82 75 74 75 78 73 80 83 86 84 79 75

GFSFLT1_sfc_rhum_048.txt.gz
RH
75 80 80 80 88 88 87 92 94 95 98 98 99 99 99 98 96 92 86 83 78 82 87 85 80 80 78 73 72 76 72 68
84 84 89 82 90 86 89 96 96 97 99 99 99 99 99 98 95 87 85 82 80 83 86 82 81 79 78 71 74 73 77 77
87 90 92 86 84 85 94 94 96 95 94 97 96 98 98 98 95 89 84 83 82 80 82 81 76 77 77 74 74 81 81 79
85 86 88 85 86 85 91 92 94 93 93 93 98 97 96 97 95 90 83 85 82 79 79 78 77 77 77 77 77 75 78 81
77 80 84 83 80 80 87 91 94 92 93 86 92 94 96 97 93 89 80 85 82 79 76 76 78 82 82 82 79 83 79 77
75 76 71 74 82 91 92 94 95 93 92 88 93 95 97 96 93 85 87 86 79 75 78 82 84 82 75 72 73 79 81 83
64 70 72 75 90 95 95 96 95 92 91 94 92 95 96 95 95 89 91 87 85 82 79 76 74 71 71 68 73 70 71 77
67 73 71 78 90 94 95 96 96 93 93 91 88 91 95 91 87 88 87 84 84 78 70 70 69 69 83 79 66 66 69 78
65 63 68 75 88 93 92 95 92 93 92 89 90 93 95 94 90 81 79 76 72 67 78 73 85 78 68 72 71 78 83 84
60 73 74 85 93 93 92 91 90 93 92 91 96 97 97 94 94 87 78 73 69 74 91 86 70 67 75 68 74 77 83 86
75 87 92 92 92 93 93 92 93 91 92 96 97 96 95 94 91 85 78 74 75 87 84 70 71 77 68 71 76 77 82 86
88 92 95 94 93 95 94 95 94 98 97 97 96 96 92 90 87 85 80 74 84 82 68 75 76 68 68 76 80 75 81 82
90 91 94 96 95 96 96 96 97 96 93 93 93 91 88 89 90 82 81 79 70 73 85 74 65 61 71 78 73 72 80 81
86 90 94 94 95 96 97 97 97 93 92 93 92 89 87 86 81 75 71 74 77 71 69 65 63 68 69 75 75 75 79 79
82 86 90 90 92 94 95 96 95 93 91 93 94 92 83 78 74 72 72 71 70 72 69 64 69 76 70 74 72 78 81 80
77 77 83 90 94 94 95 95 93 91 88 87 92 87 77 75 74 74 78 73 66 63 71 86 80 71 64 75 75 79 81 83
83 76 72 83 90 94 94 92 88 85 89 83 74 70 70 73 71 68 67 66 69 86 90 90 84 68 73 79 82 85 83 85
80 85 90 97 96 93 95 90 84 80 77 70 70 70 68 68 66 69 72 85 94 94 93 86 78 77 78 80 84 90 88 84
76 81 81 84 81 79 76 72 72 73 74 69 67 70 73 76 82 89 94 95 96 95 85 80 80 75 81 84 85 88 90 86

GFSFLT1_sfc_rhum_051.txt.gz
RH
65 68 65 59 64 68 72 76 82 82 80 81 80 84 84 86 86 78 73 67 71 65 64 66 62 54 54 51 52 50 45 43
62 62 66 64 66 70 71 78 82 78 75 82 80 88 90 91 88 80 74 62 62 65 61 62 59 55 55 58 54 55 50 51
69 67 66 67 66 69 68 70 76 75 69 75 72 82 88 86 87 78 76 67 62 64 65 61 60 56 60 58 56 53 52 53
72 74 74 70 68 70 67 66 72 75 71 70 76 81 85 87 86 82 74 68 66 63 66 62 62 57 55 58 57 56 53 56
66 70 75 75 72 67 66 70 74 74 76 71 75 76 80 83 85 78 68 69 74 69 61 62 61 56 59 58 56 59 61 50
64 67 65 67 72 79 75 75 75 76 77 74 80 80 78 85 86 79 73 76 77 65 62 62 62 57 63 63 64 61 57 52
57 58 62 64 75 79 80 76 75 75 78 79 82 81 83 83 82 80 74 71 68 66 59 61 63 62 60 68 83 75 67 72
55 59 63 62 74 79 79 74 74 79 81 83 82 82 81 85 81 80 80 74 67 67 64 66 65 67 72 86 64 65 69 54
52 54 58 61 68 73 74 73 72 76 80 83 84 80 82 81 85 83 77 76 70 68 64 69 71 71 72 71 68 65 71 66
49 51 58 61 65 73 76 73 72 78 81 82 83 83 85 85 86 88 87 82 68 71 68 65 78 71 68 81 77 63 68 72
49 54 59 61 63 70 76 72 71 74 77 79 79 82 83 85 89 90 85 77 75 72 66 74 69 73 81 76 69 67 69 64
56 56 59 62 66 70 73 71 68 72 74 80 87 89 88 89 92 89 85 80 74 74 77 66 76 92 80 67 70 70 62 60
60 62 68 71 70 70 69 70 73 76 81 88 91 91 92 94 93 89 82 76 73 78 76 75 84 71 68 74 70 54 57 59
62 68 71 75 77 78 79 80 79 79 82 83 89 89 86 88 85 80 73 73 75 75 79 81 66 65 66 62 58 58 61 60
61 64 68 73 75 77 80 85 88 84 81 82 86 86 82 79 77 73 72 69 66 67 66 80 76 66 58 58 58 60 60 58
62 61 66 71 76 79 80 82 82 82 83 80 82 78 72 69 68 76 79 76 65 69 65 78 76 71 68 68 61 61 59 59
72 71 66 75 78 78 81 78 77 74 75 78 71 72 66 72 70 65 60 79 65 82 86 82 87 84 82 84 76 60 56 58
75 77 78 79 79 79 78 74 69 67 65 64 64 64 65 67 70 76 74 85 88 92 95 96 91 79 82 82 83 59 61 59
70 70 71 70 68 68 66 61 63 62 61 62 65 72 78 77 80 91 94 93 93 93 82 77 71 60 79 84 87 60 57 57

GFSFLT1_sfc_rhum_057.txt.gz
RH
48 37 37 35 40 46 47 53 56 59 61 54 46 46 49 42 40 47 59 58 64 60 51 53 54 51 50 47 51 50 45 35
46 44 40 37 42 47 49 55 54 44 45 47 47 46 44 43 42 51 67 66 59 70 60 59 61 52 52 54 54 61 50 39
42 43 43 43 43 44 44 43 42 41 36 38 38 40 39 45 46 52 65 67 58 63 66 62 61 50 56 58 62 61 58 43
43 44 44 44 44 44 40 41 41 42 40 36 36 36 37 38 42 49 69 73 79 87 82 67 59 55 56 60 57 67 55 45
40 42 41 43 44 44 43 41 40 40 42 40 42 39 39 39 46 48 69 85 90 91 83 83 61 56 65 66 59 63 51 47
35 37 37 38 41 44 46 44 41 39 40 44 43 46 40 37 43 52 72 80 80 76 76 76 66 64 68 69 66 59 48 49
28 31 34 35 38 45 47 44 40 38 41 46 52 51 50 42 42 71 76 75 76 73 66 79 81 74 74 70 62 58 62 71
25 28 33 36 39 44 45 42 41 40 45 46 50 53 56 56 63 64 67 72 71 77 69 85 86 84 81 64 72 67 62 62
25 25 29 33 39 44 46 43 44 41 46 51 57 56 60 62 59 58 64 67 78 73 89 88 93 90 82 86 84 61 65 70
21 24 26 30 35 43 50 47 45 44 49 55 75 74 66 69 70 73 73 75 75 79 92 90 91 93 89 85 81 82 84 74
20 21 26 27 31 39 46 50 48 49 54 58 62 69 75 75 78 82 80 82 78 86 89 88 94 89 83 78 85 82 87 93
22 22 22 24 28 34 43 46 45 47 48 59 72 79 74 74 86 86 85 82 82 85 87 92 89 87 85 92 86 86 88 90
25 26 26 28 32 34 38 44 45 43 45 56 71 77 85 87 90 92 92 90 86 86 86 85 80 89 90 83 81 80 85 77
27 32 33 33 35 37 39 42 42 41 44 79 82 87 91 93 93 91 88 87 87 85 82 82 81 83 80 76 77 83 82 77
21 26 32 36 40 42 46 55 56 55 68 74 88 91 91 90 87 84 83 80 81 82 80 78 86 86 77 80 83 87 79 70
23 25 32 39 46 50 66 73 74 74 80 83 88 84 79 78 77 77 80 78 76 72 77 76 78 81 82 90 84 78 81 76
27 30 38 47 52 54 63 70 72 74 77 73 70 66 63 65 66 68 67 67 67 71 77 84 91 77 87 89 87 82 68 54
35 38 46 51 54 57 60 61 62 62 61 59 56 56 58 59 55 55 57 63 65 70 81 75 76 75 87 91 95 62 51 48
44 46 49 49 48 49 52 49 51 53 52 51 52 54 54 56 58 62 67 68 71 72 70 70 70 53 84 81 82 51 46 43

GFSFLT1_sfc_rhum_060.txt.gz
RH
53 61 59 59 63 69 70 71 73 72 70 63 66 84 59 64 64 68 74 73 72 76 74 77 76 74 75 72 71 69 67 58
42 52 54 52 63 66 64 69 72 67 66 68 70 68 65 67 64 64 78 77 78 84 79 81 78 77 74 75 76 72 68 57
47 44 47 52 60 60 59 61 63 62 61 59 60 57 59 61 60 64 77 82 80 78 85 87 81 89 78 78 75 76 73 67
52 47 50 52 56 56 55 57 59 60 55 50 51 54 57 56 60 64 77 85 89 83 86 90 91 87 81 81 78 72 70 72
49 49 50 51 54 54 53 54 53 52 51 46 52 50 51 53 59 59 71 84 86 87 89 91 94 94 95 86 71 74 77 73
46 48 48 48 50 54 52 50 47 48 49 54 61 56 54 58 62 66 83 90 88 86 90 92 93 96 91 86 89 84 78 79
40 44 45 45 47 53 54 52 49 48 49 55 62 64 63 58 60 69 81 89 88 88 85 89 90 91 92 94 96 94 96 90
38 41 42 44 48 53 55 53 51 50 53 56 58 64 71 64 67 80 88 89 91 88 88 87 93 94 96 97 97 94 93 94
31 34 38 40 46 51 52 50 51 49 52 55 66 66 68 77 87 79 84 85 89 88 90 92 92 95 96 94 94 97 97 95
28 28 36 39 42 51 56 51 49 48 50 56 71 78 76 72 78 76 87 89 91 92 92 94 96 94 94 96 98 95 87 92
22 26 32 37 41 48 54 54 49 50 52 61 67 73 78 77 86 88 94 92 93 92 95 96 95 95 96 96 93 92 91 96
25 26 29 32 38 43 52 53 50 51 52 66 73 77 80 93 92 94 93 94 92 93 93 94 95 96 94 94 93 89 89 90
27 28 28 31 34 39 48 52 53 52 58 68 81 92 91 95 97 98 94 94 93 91 93 93 93 93 94 90 87 84 86 89
28 32 32 33 37 42 50 54 53 69 78 84 93 94 95 97 97 95 92 93 94 94 93 92 92 92 90 87 83 86 86 83
29 34 36 38 41 45 50 63 79 75 80 88 94 96 95 94 93 92 93 90 90 88 87 87 89 88 85 84 83 88 90 86
25 32 40 43 50 70 72 77 78 80 86 89 93 91 90 89 87 86 86 86 84 83 86 88 87 85 80 86 87 93 87 85
23 29 38 45 66 72 77 80 80 79 85 86 84 84 80 83 82 82 81 79 78 81 86 87 89 83 96 95 86 85 79 78
27 32 44 55 66 74 76 78 76 76 75 72 72 71 74 75 70 71 74 79 82 85 89 88 88 85 90 91 92 88 76 69
35 48 61 59 62 67 70 67 68 69 65 63 63 65 64 64 66 72 76 78 84 85 85 84 82 70 89 86 81 70 68 68

GFSFLT1_sfc_rhum_063.txt.gz
RH
77 78 79 81 86 86 87 81 80 78 78 69 77 90 88 80 76 80 80 78 80 79 80 83 80 78 81 77 72 74 76 65
71 75 76 83 82 83 85 86 82 77 78 75 72 78 82 80 79 69 80 81 79 85 84 88 85 79 82 76 77 78 75 68
73 73 74 79 80 80 81 79 80 73 71 66 68 71 76 71 74 74 84 81 86 84 84 89 90 92 84 83 81 82 75 71
74 69 71 76 79 78 74 73 73 66 63 64 69 71 73 75 72 70 86 86 86 87 89 90 94 92 90 85 78 75 77 78
61 62 68 74 72 70 66 68 70 66 62 64 68 69 66 66 74 73 88 89 90 92 95 95 95 90 89 89 85 82 81 88
53 56 57 60 62 62 62 64 62 60 64 66 66 63 61 61 63 73 83 92 92 92 91 95 95 97 95 94 92 94 97 98
54 49 52 56 56 57 59 62 59 58 61 63 63 58 64 66 65 71 83 91 90 93 93 96 96 97 97 97 97 97 98 98
58 55 53 53 58 58 58 59 60 57 58 56 58 65 60 65 72 76 93 96 97 96 96 98 97 97 96 96 97 98 98 97
53 54 54 53 54 58 58 56 56 54 55 55 55 61 74 75 78 86 85 92 94 95 96 97 97 96 98 98 97 96 95 97
48 52 52 53 52 55 60 55 53 53 55 60 66 69 75 79 77 89 93 94 96 96 96 98 98 97 96 95 97 99 98 95
44 47 51 49 50 53 56 57 56 55 55 61 62 77 74 78 95 97 97 99 98 98 98 96 97 96 97 97 98 97 93 95
36 38 44 44 45 50 58 58 56 56 57 58 63 76 83 96 94 97 96 98 96 96 96 97 98 98 97 97 95 92 92 93
33 41 41 42 43 45 53 58 58 61 60 66 85 96 98 98 99 99 97 97 97 96 96 97 96 97 95 93 91 87 88 89
38 39 41 48 47 48 52 69 86 91 95 94 98 99 99 99 99 98 97 96 96 95 94 95 96 94 92 92 91 90 88 87
42 44 45 53 78 89 87 87 85 87 97 98 98 98 98 97 97 95 95 94 95 95 93 93 94 93 90 88 87 88 87 86
44 49 55 89 91 90 92 95 96 94 96 97 98 96 94 93 93 93 91 90 89 89 91 94 93 90 85 87 84 89 93 90
40 48 60 82 88 92 91 94 96 92 94 96 92 93 91 90 89 89 88 87 86 90 93 93 91 84 93 92 93 91 84 83
39 51 72 83 88 88 92 90 89 91 91 88 85 85 86 86 82 81 84 87 90 94 96 94 93 90 94 95 92 92 93 78
67 65 85 85 86 89 87 80 78 79 80 79 80 81 80 79 78 86 93 92 93 94 94 94 92 84 94 93 91 80 81 73

GFSFLT1_sfc_rhum_066.txt.gz
RH
85 90 91 83 84 84 88 84 79 82 80 77 71 85 80 77 75 84 81 80 85 84 84 86 82 83 83 83 75 80 80 75
83 86 90 86 87 89 84 86 84 81 79 76 70 61 76 79 82 77 85 84 86 88 88 91 86 79 79 80 80 78 83 80
84 88 90 92 91 92 92 89 86 75 69 66 65 68 84 86 82 84 86 87 86 86 89 92 90 92 87 86 82 87 83 78
86 86 89 92 91 92 90 87 85 80 75 71 77 82 86 86 76 76 86 91 86 84 88 92 90 92 91 86 83 77 84 83
80 83 87 89 85 83 82 82 82 76 75 70 69 68 69 63 62 63 83 91 91 90 90 90 94 93 94 91 88 86 81 87
80 79 78 80 78 82 81 78 77 71 69 67 68 70 69 72 76 80 81 90 90 90 90 94 94 96 95 94 95 93 94 96
70 69 70 78 77 77 76 75 73 69 66 66 68 74 77 77 74 77 76 86 93 93 92 94 96 97 97 96 96 94 96 97
71 69 71 74 75 72 70 69 70 67 67 67 69 72 72 76 73 75 76 84 93 95 96 96 97 96 98 98 97 97 98 97
58 62 63 65 64 66 65 65 66 63 65 66 69 69 74 72 75 76 83 82 83 89 94 96 97 98 99 98 98 98 98 98
60 55 60 60 59 62 65 62 60 59 61 63 67 73 73 70 76 87 88 92 98 98 97 98 98 99 98 98 98 99 97 98
58 58 56 55 60 60 65 61 59 55 56 59 61 65 73 86 93 94 96 98 97 98 98 98 99 98 98 97 98 98 98 98
49 55 55 54 52 62 63 66 62 59 59 60 62 71 83 92 96 98 98 99 98 98 98 98 98 98 98 98 98 97 94 92
47 49 53 55 55 55 60 67 69 69 75 78 86 96 96 97 97 98 99 98 98 98 98 98 97 98 98 97 96 92 91 92
44 47 47 53 54 54 56 71 79 78 87 88 95 94 94 96 96 96 93 98 99 98 97 98 98 98 96 94 91 90 91 92
45 52 62 76 58 54 65 76 77 79 82 94 96 95 92 88 99 99 98 97 98 98 97 97 96 95 93 91 91 91 89 88
46 60 94 97 97 94 77 81 79 80 92 96 99 99 98 98 98 98 98 96 96 95 96 96 95 93 91 90 87 88 89 92
47 60 91 93 98 96 98 95 96 95 98 98 97 98 96 97 97 96 95 94 93 95 97 96 96 88 96 93 87 92 88 84
52 62 85 91 96 97 97 97 94 96 97 96 94 94 95 95 91 92 91 93 94 96 96 93 92 91 92 93 93 88 88 80
50 60 85 92 94 96 97 93 93 94 92 91 90 91 92 88 87 89 93 92 93 94 94 94 94 87 96 98 91 84 81 82

GFSFLT1_sfc_rhum_072.txt.gz
RH
96 97 95 90 89 91 95 96 97 97 93 95 97 97 97 96 90 73 68 68 70 74 75 80 82 83 82 80 79 81 74 69
97 96 83 91 94 91 94 97 96 95 94 86 96 96 97 95 84 74 72 73 75 82 81 88 87 84 83 83 81 80 84 77
98 94 81 89 87 91 91 89 88 87 87 80 92 94 89 87 86 84 85 80 79 85 87 93 93 92 88 88 82 86 83 83
95 94 86 87 88 90 88 84 82 77 78 79 84 84 88 86 83 81 86 87 90 91 92 94 94 94 92 89 86 81 83 88
96 91 88 87 94 94 83 80 80 79 83 76 70 68 74 65 66 78 76 89 90 90 92 94 94 96 93 91 87 87 88 93
96 96 90 85 94 90 97 94 89 87 84 77 78 75 64 67 69 67 72 84 86 90 92 93 96 94 94 94 94 92 90 94
91 93 94 91 94 98 97 96 92 88 87 86 81 80 81 79 79 82 87 90 91 92 92 95 95 97 96 95 97 95 94 92
93 97 97 98 97 96 93 96 93 88 90 87 84 81 80 78 76 83 83 87 94 94 95 96 97 95 96 96 96 96 97 97
87 89 91 94 95 96 95 94 90 87 86 85 83 82 80 80 86 84 90 85 89 87 93 95 96 96 97 98 99 98 98 98
79 83 85 87 89 90 92 91 88 85 85 83 83 85 84 82 89 93 93 94 91 91 92 94 96 97 98 98 99 99 99 98
78 80 81 80 83 84 88 85 86 83 83 82 81 83 84 82 88 88 91 91 93 93 93 96 97 98 98 98 97 98 98 99
72 73 76 76 78 86 87 85 82 82 80 81 80 83 82 83 83 86 92 92 92 91 91 94 95 96 98 99 99 99 99 99
73 73 77 77 76 82 85 85 81 80 78 80 81 80 79 82 82 81 83 90 92 89 92 93 96 97 99 99 99 98 98 99
70 76 74 73 73 74 77 82 81 76 75 76 79 79 77 76 78 80 86 87 90 92 95 98 98 98 99 99 98 98 98 98
64 71 75 71 70 71 74 79 78 76 75 74 76 78 75 77 84 88 90 91 93 94 97 98 99 99 99 99 98 98 98 96
46 65 64 73 74 71 70 76 78 77 76 75 75 75 73 82 92 92 92 92 92 94 98 99 99 99 98 98 98 98 97 97
37 49 60 70 74 75 73 77 80 78 79 79 76 78 78 84 92 92 93 96 97 98 99 98 99 99 100 99 96 96 94 94
36 40 49 59 64 76 78 76 83 83 82 80 82 83 85 90 94 98 98 98 99 99 99 98 98 99 100 98 97 92 95 88
35 37 52 72 90 92 90 89 88 89 88 87 86 92 96 99 99 99 99 99 99 98 99 98 98 97 99 97 93 87 87 81

GFSFLT1_sfc_rhum_075.txt.gz
RH
76 76 72 73 80 88 92 97 96 97 94 93 97 98 98 96 90 71 69 60 70 64 71 78 74 68 61 57 55 55 47 45
77 80 76 80 85 90 94 97 96 95 96 93 97 98 98 97 90 77 72 67 70 76 74 80 74 64 64 71 67 65 63 59
85 85 79 80 85 85 92 93 91 85 86 72 89 95 96 95 92 83 78 73 74 71 71 76 78 79 75 78 74 75 72 68
88 91 80 80 80 83 82 90 88 84 82 85 92 93 96 97 93 90 80 76 73 74 73 82 78 78 81 80 73 69 67 72
82 86 84 78 76 81 77 83 84 82 82 82 89 91 94 91 88 85 81 78 76 65 77 82 83 87 81 84 71 71 70 72
79 83 81 75 74 82 76 77 78 75 76 70 80 86 85 89 89 88 82 78 73 76 79 78 84 80 84 83 85 83 80 78
68 72 76 78 76 80 80 75 75 73 74 70 70 76 72 72 74 76 72 76 82 79 75 80 78 81 81 83 84 84 83 87
69 76 81 82 83 83 84 79 76 75 73 72 70 71 67 63 63 64 65 65 70 73 74 78 79 79 81 82 83 89 88 89
68 70 75 79 84 83 84 83 76 74 74 71 70 68 64 63 64 62 68 64 66 68 74 72 73 74 77 80 83 84 86 89
63 68 71 74 78 81 84 80 73 73 73 71 72 73 71 67 68 70 70 70 71 70 71 71 71 72 74 79 84 84 88 90
61 66 71 70 71 75 78 74 72 72 72 71 70 71 72 71 72 74 74 72 70 68 69 68 66 70 75 80 85 84 93 98
59 63 65 67 68 72 76 74 71 70 70 72 73 74 74 74 75 75 73 73 71 76 76 76 75 77 83 90 91 90 96 96
52 60 65 67 69 69 73 74 72 76 75 75 79 77 75 78 76 74 73 71 71 70 69 70 76 90 96 96 96 95 98 98
52 58 64 64 66 69 69 76 76 72 72 77 79 79 77 75 72 70 68 70 72 72 72 79 78 80 88 92 97 98 98 97
36 54 58 61 63 68 70 75 75 73 73 75 78 78 77 75 72 72 74 72 74 74 76 75 80 83 92 95 96 98 98 97
29 38 51 58 63 64 66 71 74 72 72 72 75 75 74 71 72 72 72 73 72 70 78 92 95 96 98 98 96 97 97 97
28 31 40 55 64 63 65 68 72 71 71 72 69 70 70 74 74 76 74 76 74 75 80 89 97 98 100 100 99 98 97 97
31 30 35 45 55 65 66 64 68 71 70 68 67 67 68 71 69 71 76 80 84 89 90 95 97 97 100 100 100 97 97 94
34 32 36 36 44 56 60 60 68 71 69 67 67 69 69 67 72 76 84 90 94 98 98 98 98 99 100 100 99 95 93 91

GFSFLT1_sfc_rhum_078.txt.gz
RH
52 53 52 51 54 61 71 92 95 94 94 96 98 94 94 93 80 58 50 44 53 46 40 51 43 41 44 39 44 38 35 33
52 55 56 57 64 66 80 96 94 92 93 88 98 97 94 92 74 55 52 48 48 60 59 56 49 50 50 54 46 49 43 41
58 62 60 63 67 72 84 88 91 82 71 66 89 92 93 89 82 64 65 63 68 72 63 62 59 66 73 70 55 54 54 52
55 68 64 62 68 69 78 84 88 84 78 70 89 96 96 94 89 80 70 67 62 71 73 66 75 66 64 70 67 66 60 74
46 60 59 61 60 67 74 80 84 82 78 76 78 83 93 86 84 77 73 69 68 59 70 66 73 64 60 63 59 65 57 62
43 53 53 54 55 73 77 74 80 80 77 70 70 79 78 84 90 86 76 73 67 68 68 69 61 62 62 64 68 69 61 61
37 45 49 51 53 67 68 70 74 73 77 76 76 81 89 91 89 86 79 75 76 69 64 72 66 72 66 68 73 75 72 71
37 44 48 51 56 59 66 64 70 72 74 74 72 77 87 86 79 75 77 74 70 70 73 73 73 71 66 66 70 75 75 72
36 41 46 50 57 60 69 58 59 63 67 71 70 71 71 70 67 58 62 67 64 70 75 71 69 62 59 62 67 66 66 68
34 38 43 48 54 62 67 59 52 55 62 62 63 65 66 61 64 63 60 60 54 66 63 62 60 58 56 60 64 63 63 68
31 36 43 46 50 58 63 59 53 52 56 59 57 59 60 58 60 63 63 61 57 58 60 59 57 56 56 56 57 57 60 68
33 36 39 43 47 52 59 57 52 50 53 57 58 58 60 61 62 63 61 61 57 55 55 55 54 53 52 56 58 57 61 72
32 36 40 43 46 48 54 56 52 53 53 57 62 61 57 64 66 65 66 62 58 54 53 51 51 52 53 56 61 74 86 88
28 35 40 42 44 48 50 57 57 53 52 58 63 66 62 60 60 60 58 57 55 53 52 54 52 54 52 56 72 84 81 69
20 30 37 40 42 45 48 53 58 56 54 56 62 64 64 61 58 57 58 55 54 53 55 56 57 54 54 65 70 79 76 80
17 22 30 36 42 44 46 50 56 56 56 55 58 60 58 58 60 59 58 58 54 53 60 59 60 59 61 73 78 79 84 87
17 17 18 29 37 42 46 49 54 56 58 58 55 56 57 58 58 61 60 61 58 57 58 61 64 61 91 100 88 84 91 94
20 20 21 22 26 37 42 46 49 56 57 55 56 57 58 59 56 57 60 61 63 63 64 62 62 62 100 100 100 85 93 95
23 20 23 24 25 28 37 38 45 53 53 52 54 56 57 56 58 59 61 62 66 68 67 63 63 71 100 100 100 98 99 97

GFSFLT1_sfc_rhum_084.txt.gz
RH
29 33 38 41 46 53 74 78 80 84 93 96 96 97 97 96 96 93 89 90 91 92 95 95 86 86 76 73 66 66 62 60
29 37 44 47 54 56 74 79 82 88 94 95 98 98 97 94 93 92 89 86 84 91 95 94 86 81 77 71 68 64 60 58
31 40 46 53 57 60 76 75 82 84 88 91 91 91 92 89 91 83 82 81 80 80 76 76 72 73 73 74 68 71 66 67
34 44 50 56 59 62 75 76 83 84 87 90 92 90 90 87 82 79 82 78 68 62 66 61 62 63 67 71 72 69 70 70
30 43 49 56 59 61 63 75 80 82 87 90 93 90 88 78 74 70 74 70 66 57 61 60 72 68 72 69 74 68 78 68
27 43 45 49 57 63 66 75 80 79 87 86 87 84 73 75 70 68 68 70 70 69 64 68 71 79 79 73 78 82 88 89
20 40 43 47 55 63 71 78 82 79 87 86 84 81 77 84 73 66 66 72 75 72 74 79 78 84 79 85 84 86 84 86
23 38 43 47 56 64 73 75 82 81 85 83 82 78 76 78 75 69 67 71 73 72 75 81 79 80 85 83 83 84 88 88
24 33 42 45 54 62 65 69 73 79 80 83 79 76 74 74 73 69 67 66 66 69 72 73 75 78 82 84 88 80 87 93
22 28 41 44 51 62 65 63 65 74 75 78 78 79 78 78 75 71 68 63 60 66 77 74 69 73 75 74 85 80 80 84
19 22 41 42 48 58 65 60 59 67 73 73 73 76 76 74 76 75 71 66 63 67 74 74 74 72 71 72 72 73 78 84
23 24 36 40 44 51 61 57 56 60 73 74 72 74 76 76 74 74 72 68 68 65 68 69 69 68 67 69 68 66 72 77
25 26 30 38 42 46 54 58 54 56 62 73 76 75 73 77 77 75 74 69 65 62 60 62 63 65 66 70 67 61 65 73
22 28 29 34 39 44 49 57 59 53 55 63 74 76 75 75 74 74 74 71 66 62 59 61 61 63 64 64 64 65 67 65
18 23 30 32 36 41 46 55 59 56 52 58 66 70 72 72 71 71 73 75 73 71 68 66 63 64 64 62 61 67 68 68
18 19 22 31 36 39 41 48 56 57 54 52 59 64 65 66 69 70 69 70 70 69 70 69 66 65 62 65 62 66 69 70
28 25 26 25 28 36 37 43 50 56 58 56 52 58 62 66 67 68 70 70 69 69 69 70 71 62 72 79 71 66 65 67
32 31 31 32 31 34 40 40 44 52 57 56 54 54 57 65 65 64 67 73 74 72 71 69 70 69 80 82 82 65 69 72
35 38 40 40 40 38 36 30 42 47 50 53 55 57 56 58 64 66 68 69 72 75 74 72 71 66 82 85 86 76 73 75

GFSFLT1_sfc_rhum_087.txt.gz
RH
38 47 53 58 83 88 92 94 95 97 98 98 98 99 98 98 98 97 94 92 89 90 90 94 92 83 75 62 68 70 65 62
38 45 53 58 76 91 92 94 98 97 98 98 98 98 98 98 97 95 93 90 93 92 95 94 92 78 71 66 66 62 67 66
43 52 55 61 82 87 93 94 96 92 90 90 93 94 94 94 95 94 93 93 91 90 94 95 94 84 75 71 70 73 68 67
49 54 60 67 80 89 91 94 93 88 89 89 93 93 94 95 92 89 92 91 92 93 94 94 92 82 78 74 69 66 61 75
49 56 64 68 77 86 88 92 91 88 90 91 92 91 92 85 84 82 82 83 84 82 80 78 78 78 74 77 71 72 75 67
51 57 60 66 71 84 88 90 86 86 90 87 87 87 80 80 80 83 83 82 74 71 72 71 69 74 76 71 79 82 87 86
50 53 61 68 70 81 86 89 86 87 88 87 85 83 80 87 77 82 80 75 78 76 65 62 76 74 84 81 83 84 92 91
52 58 64 69 74 81 86 86 85 86 90 87 82 78 75 77 71 75 75 76 76 76 73 69 77 81 85 83 88 87 90 95
53 55 60 68 74 79 81 85 77 84 89 87 83 75 73 73 68 66 69 72 69 83 86 83 80 87 89 85 87 92 93 95
52 53 56 65 73 81 81 83 80 77 88 85 84 80 77 73 72 66 64 67 65 77 80 83 86 82 85 89 92 86 88 89
45 51 55 59 68 77 81 79 80 81 77 83 82 80 77 77 75 71 70 67 66 67 82 75 78 78 76 81 84 85 83 84
35 47 51 55 65 71 74 76 76 81 76 79 79 83 77 80 78 74 73 72 69 65 74 77 74 72 73 75 73 75 80 77
35 47 50 56 63 69 69 68 70 80 78 76 76 76 81 80 80 78 74 75 70 68 72 72 73 71 71 74 74 67 76 80
24 47 49 53 56 68 68 67 67 71 78 79 80 74 76 83 78 76 76 72 72 70 68 72 69 69 70 71 71 74 72 73
30 31 48 52 53 60 66 67 65 66 76 81 83 77 74 76 81 77 77 76 73 71 68 68 67 65 64 67 69 74 74 71
34 34 38 41 56 62 59 65 66 61 62 74 83 80 78 77 75 79 80 79 77 73 70 68 64 61 57 63 65 69 72 73
41 43 43 44 46 49 61 64 66 64 60 60 69 79 79 80 79 79 79 80 83 77 75 73 70 61 70 80 70 67 66 68
46 48 61 64 66 63 67 66 66 67 64 60 58 70 75 76 77 78 79 80 79 85 83 78 78 75 84 85 87 70 73 73
48 66 70 72 73 75 70 61 64 72 73 66 62 60 70 74 73 74 78 81 80 80 82 82 81 77 89 87 89 79 75 75

GFSFLT1_sfc_rhum_090.txt.gz
RH
46 62 63 81 92 93 95 96 98 98 97 99 99 99 99 99 99 99 95 93 93 91 94 92 82 75 65 71 71 74 72 70
49 59 62 94 96 96 96 97 98 96 97 98 99 99 99 99 98 96 98 97 96 96 96 93 82 63 66 69 66 64 73 75
55 63 73 91 96 95 96 96 94 92 97 95 96 96 96 96 97 97 97 97 93 94 92 91 90 66 73 66 65 74 72 69
56 64 73 94 97 96 95 96 94 92 93 92 95 95 97 96 95 98 97 94 94 94 90 91 89 76 74 63 61 60 63 77
54 62 73 92 94 93 94 96 97 94 90 92 95 93 96 91 90 91 97 97 94 92 92 90 89 90 78 64 59 59 64 66
54 59 67 80 91 94 95 96 96 96 87 89 89 89 86 87 88 89 90 94 96 97 91 95 96 95 83 71 76 78 74 84
51 54 62 86 89 94 97 96 95 95 89 89 86 87 86 91 88 90 88 85 91 90 86 89 90 94 92 87 80 82 86 87
55 64 75 86 93 96 96 95 96 95 89 89 84 83 85 83 84 86 86 84 84 86 81 81 84 84 87 83 85 85 89 90
58 68 73 78 87 93 92 94 96 95 91 88 84 80 85 85 77 80 83 79 76 75 81 78 82 78 77 81 84 88 91 93
62 68 71 75 83 88 88 89 90 92 86 87 84 80 82 83 75 73 78 75 71 81 88 80 85 88 88 86 90 92 94 94
62 66 70 72 77 83 86 83 84 91 82 86 84 81 75 76 76 78 78 74 71 75 87 84 83 85 86 92 85 90 93 92
61 61 66 71 76 81 86 83 82 85 90 89 84 84 78 77 82 78 75 74 77 76 76 82 83 81 83 85 86 88 88 83
51 59 62 73 80 82 84 83 83 82 84 89 85 83 81 81 82 80 76 74 74 72 73 78 78 80 78 81 80 76 88 87
56 64 64 72 78 80 81 82 83 83 82 87 89 86 84 82 81 82 78 77 74 71 69 74 74 77 76 76 75 76 76 77
42 52 76 75 73 78 79 82 81 85 84 81 87 84 85 82 80 81 82 79 78 75 70 71 72 70 72 72 73 75 76 74
54 58 64 64 73 78 81 80 83 81 85 84 83 81 77 79 86 81 81 83 79 77 76 73 73 72 68 72 71 73 75 77
64 66 67 72 75 75 74 76 84 84 81 85 81 82 82 79 78 86 85 84 84 80 77 78 77 71 77 81 73 70 69 72
73 75 76 80 83 82 86 82 82 85 77 83 83 85 87 84 82 83 86 90 86 88 86 82 81 77 85 84 82 66 68 70
81 80 81 80 80 81 83 81 82 84 86 85 84 84 85 86 87 87 86 85 87 87 87 84 83 77 88 88 86 72 68 68

GFSFLT1_sfc_rhum_093.txt.gz
RH
41 65 72 82 88 92 95 97 98 98 98 99 100 99 99 98 98 99 97 94 94 94 96 94 87 83 78 74 69 76 84 79
37 67 78 89 95 96 96 98 96 97 98 98 99 99 99 99 99 98 99 96 93 96 96 95 92 72 69 73 67 70 81 82
53 74 85 95 93 90 94 95 95 90 90 89 91 92 98 97 98 98 97 98 96 93 96 94 89 70 70 74 62 76 82 77
63 72 91 95 93 92 93 91 92 87 96 99 98 98 98 98 97 98 97 97 97 97 96 93 93 83 80 73 62 62 73 84
61 69 87 94 96 96 96 88 89 85 97 98 97 98 94 92 93 94 98 95 96 98 93 94 94 85 80 78 66 60 70 73
58 68 74 86 96 97 92 90 90 88 96 96 98 97 96 97 93 95 98 99 97 95 95 94 91 82 90 88 80 78 75 78
49 58 68 88 96 94 90 91 90 86 96 96 94 90 90 98 95 95 95 96 99 97 95 96 94 90 96 96 87 83 87 83
50 65 77 96 96 92 90 90 91 92 96 95 87 84 85 96 91 92 92 94 97 98 95 93 92 86 94 94 92 87 84 81
53 62 75 93 95 92 91 91 89 90 93 94 83 81 90 91 91 87 87 88 88 92 91 87 84 86 89 89 91 89 91 91
53 61 75 85 93 95 95 93 88 84 83 94 86 84 84 91 90 84 90 88 80 84 84 84 85 86 88 90 91 88 91 91
54 66 74 80 87 91 93 92 90 84 79 86 91 91 85 88 88 87 93 91 85 86 88 83 80 84 88 91 90 85 84 90
72 69 73 78 83 89 92 91 93 90 80 78 89 91 88 88 88 86 89 88 86 84 83 84 83 82 88 90 80 81 83 80
75 73 74 82 86 88 91 88 89 92 87 80 85 91 86 86 88 86 84 85 85 81 83 82 82 83 84 86 88 86 89 86
72 77 81 88 91 92 92 90 90 90 90 84 85 94 92 86 85 88 84 80 82 80 81 83 83 82 87 88 85 84 89 88
73 82 88 89 89 90 92 92 90 90 90 93 86 94 93 90 87 87 87 82 80 79 78 79 80 81 81 85 85 86 85 85
71 79 84 84 86 85 86 91 90 90 92 91 94 94 94 93 91 89 88 86 82 80 78 77 78 77 75 78 77 79 82 82
77 81 84 86 86 87 86 87 89 88 89 91 90 93 94 92 94 91 91 89 86 84 84 81 79 73 79 84 78 76 74 78
81 82 82 84 86 86 88 86 82 86 86 86 89 90 90 90 87 89 92 91 90 90 88 85 84 80 86 87 87 72 75 77
83 82 82 80 79 77 78 77 79 80 83 82 83 85 88 89 90 89 89 90 93 92 91 89 88 83 91 90 90 80 76 75

GFSFLT1_sfc_rhum_096.txt.gz
RH
26 49 64 87 92 93 95 97 98 99 99 99 99 100 99 99 99 97 95 95 94 95 97 97 92 91 83 78 77 79 81 84
25 30 64 93 95 96 96 97 98 97 98 98 99 99 99 100 99 97 98 94 96 95 97 96 94 88 85 77 76 82 87 80
28 51 90 90 94 94 96 90 93 92 95 89 92 93 98 98 99 97 97 98 96 95 97 96 95 92 86 75 70 80 86 80
39 74 89 91 96 95 94 88 90 89 87 91 97 98 98 98 99 99 98 98 96 95 95 94 95 92 91 79 68 68 80 87
35 65 86 94 94 92 90 87 90 86 90 94 93 92 97 96 98 98 98 97 97 97 98 94 95 95 94 83 65 65 74 82
53 61 74 91 93 86 86 87 90 88 93 97 98 98 90 88 98 96 98 97 96 98 97 94 93 91 88 84 73 70 72 79
46 57 73 94 89 84 88 89 90 88 93 97 96 97 94 98 97 97 93 99 98 98 97 96 95 93 93 89 78 70 80 82
41 67 78 96 92 88 87 88 90 93 95 97 96 96 96 92 92 94 97 98 99 99 97 98 97 90 90 89 89 89 92 85
33 58 70 91 90 87 87 87 91 91 94 96 96 95 96 88 97 91 93 94 95 97 96 94 93 92 93 93 89 88 96 95
38 50 64 90 89 85 85 88 88 88 90 95 96 95 96 96 96 96 89 91 90 92 92 91 87 86 90 91 89 87 90 91
54 49 70 90 90 82 88 86 85 87 89 91 94 95 94 96 95 97 96 89 86 90 90 92 92 87 89 91 91 87 88 86
75 73 78 86 86 83 87 88 85 84 84 89 96 96 94 95 95 96 96 94 93 90 88 86 88 90 89 91 89 91 90 89
82 82 85 94 92 87 87 91 89 85 83 84 89 96 96 96 96 95 95 95 93 92 92 91 85 84 89 90 91 88 90 88
86 89 91 94 94 93 92 95 96 89 87 84 87 91 96 96 96 95 92 94 94 92 92 90 89 85 85 90 92 90 89 86
88 90 92 94 96 96 96 97 95 97 90 85 91 91 93 96 95 95 92 89 91 93 91 90 88 87 84 87 86 88 89 89
84 89 91 90 92 92 97 97 96 94 97 91 90 89 89 95 95 95 93 90 86 85 86 88 88 87 85 87 89 89 89 89
83 84 85 87 87 87 86 84 87 94 92 94 95 93 92 93 92 95 95 94 92 89 87 86 87 81 87 91 88 87 88 91
86 84 83 81 82 82 82 81 80 84 86 86 87 90 94 94 94 93 94 95 94 94 92 89 87 84 88 89 90 80 81 82
89 85 83 78 76 75 74 72 77 79 82 82 82 84 86 87 91 93 94 94 94 93 92 90 89 84 93 91 92 82 78 78

GFSFLT1_sfc_rhum_099.txt.gz
RH
21 22 38 50 60 67 69 77 88 90 91 88 90 93 95 93 94 94 92 89 88 91 96 96 96 98 96 96 95 95 85 68
24 26 27 49 66 72 73 82 88 89 94 96 97 97 96 95 97 88 94 96 91 92 97 96 92 93 95 94 95 94 88 74
24 24 28 51 64 72 74 76 86 84 86 84 83 89 92 88 92 93 93 88 95 92 95 96 92 91 88 90 87 85 78 77
25 28 36 50 63 72 74 73 83 83 85 83 86 91 95 96 92 87 89 91 97 95 95 94 94 92 90 80 76 75 80 74
25 26 33 56 63 69 71 73 80 82 85 84 85 80 87 88 81 81 74 80 79 95 94 94 94 93 93 84 71 72 76 77
26 26 28 44 63 74 75 76 78 83 85 82 84 86 80 77 77 78 77 79 77 76 95 94 95 95 93 92 86 73 72 73
29 26 32 52 69 75 78 81 82 83 86 87 88 88 77 75 80 75 76 81 83 76 90 91 95 94 94 92 88 82 78 77
41 29 46 67 77 79 80 80 87 85 86 89 88 80 77 82 82 73 79 93 95 84 97 93 94 87 89 92 93 93 90 83
51 39 50 67 77 78 80 81 84 82 87 91 84 76 73 73 74 70 81 87 87 93 87 96 93 89 89 93 94 91 88 89
61 49 44 69 77 79 81 83 81 83 87 90 83 78 77 74 76 79 82 87 88 95 94 95 94 90 91 92 92 88 88 92
63 55 45 68 73 78 79 81 81 83 86 89 80 77 76 75 77 82 83 87 88 91 90 91 92 93 92 93 92 86 88 91
75 73 74 74 73 75 83 84 83 85 85 88 82 79 79 79 79 79 78 84 88 89 90 87 86 87 89 89 86 82 79 76
82 83 82 78 79 83 86 86 85 87 86 89 83 81 79 81 81 81 80 79 85 82 86 87 88 84 83 83 90 82 78 78
88 89 88 85 88 89 89 90 88 85 86 86 86 85 83 79 79 79 79 77 76 76 79 87 89 89 87 87 87 88 89 86
86 87 90 92 92 91 91 91 88 85 84 82 84 83 81 80 79 79 80 78 76 75 75 76 79 79 82 87 88 87 86 82
88 88 89 89 89 90 90 93 90 89 87 87 87 83 84 84 82 80 79 79 75 72 75 74 74 72 71 77 80 86 86 83
85 84 84 87 88 88 86 86 91 90 93 93 91 91 87 91 88 83 82 80 75 74 75 76 77 69 87 93 82 76 76 73
88 84 82 81 84 83 86 83 81 84 85 84 87 89 92 93 92 90 89 85 82 81 78 74 75 73 91 94 95 70 71 74
93 89 83 79 75 76 83 83 80 83 84 82 80 82 85 86 88 92 95 94 94 92 90 87 83 86 98 96 95 87 83 83

GFSFLT1_sfc_rhum_102.txt.gz
RH
13 14 15 18 27 37 44 54 66 82 85 64 58 84 82 80 85 70 72 72 72 74 79 97 97 97 98 98 97 95 93 68
13 14 17 18 26 37 45 55 63 80 82 75 80 91 90 80 86 77 75 77 78 81 85 93 94 94 96 96 97 96 97 84
15 15 16 21 24 38 44 48 56 69 63 60 61 73 80 74 82 75 73 79 85 84 90 92 94 93 94 95 96 98 96 87
16 16 18 19 25 34 41 44 51 62 55 53 61 69 80 82 80 88 81 76 88 91 89 92 96 93 91 93 93 90 93 90
16 16 17 18 23 30 38 42 48 58 57 59 70 66 69 63 67 76 82 78 84 93 94 92 93 95 94 86 82 88 77 78
25 20 18 16 19 31 41 44 47 56 59 61 64 60 55 55 62 74 71 67 71 80 97 93 94 94 92 90 85 82 78 72
33 26 22 19 18 31 47 48 50 57 65 63 64 64 60 58 64 61 62 68 63 67 72 94 94 92 93 92 87 83 81 73
38 33 26 22 23 42 50 50 52 67 74 66 64 66 63 61 59 56 56 67 70 67 72 87 94 93 92 94 93 91 90 84
47 37 32 24 33 47 51 50 54 72 76 71 65 66 58 56 59 51 55 58 64 69 76 82 86 88 92 95 95 95 90 92
61 45 36 29 38 50 57 55 58 76 77 75 76 65 61 58 59 59 61 68 70 82 84 96 92 88 86 92 90 91 91 93
75 54 42 30 42 53 67 68 70 79 80 77 75 64 62 60 62 66 67 72 75 83 92 86 92 91 92 92 94 93 95 95
81 75 55 43 46 55 74 74 75 81 83 80 72 65 63 62 62 66 66 71 77 80 81 80 91 94 94 96 94 92 93 93
80 84 77 62 55 67 77 77 82 86 86 85 73 67 63 64 64 67 68 69 73 77 80 74 78 80 85 87 89 83 87 87
81 82 86 87 78 80 76 83 88 87 88 84 76 73 66 62 62 64 66 68 67 71 71 78 78 74 78 80 79 76 78 76
82 84 87 88 91 88 88 90 88 89 88 82 79 75 66 61 61 65 67 66 68 69 69 71 75 75 73 73 74 79 70 66
86 89 88 87 89 90 90 92 91 89 90 83 81 74 70 68 70 68 67 68 67 65 68 69 72 72 70 76 75 78 77 79
92 92 88 88 89 89 89 90 93 90 91 93 87 83 84 83 76 75 75 72 66 66 67 69 70 64 85 92 81 74 75 74
95 93 88 88 89 89 90 88 86 88 87 85 84 87 89 93 93 88 79 76 73 70 68 66 69 76 96 96 94 66 70 71
98 97 93 89 81 77 85 84 84 83 83 81 82 82 84 86 87 91 94 94 96 93 93 90 92 86 96 96 99 90 86 80

GFSFLT1_sfc_rhum_105.txt.gz
RH
10 9 9 10 12 19 26 41 57 62 58 55 50 50 65 56 57 59 64 64 74 72 78 74 77 92 96 97 97 96 94 95
11 12 11 12 15 22 28 41 55 61 74 58 52 64 82 77 76 66 62 59 66 75 76 90 91 96 97 97 97 98 99 96
12 12 13 16 18 22 29 34 46 57 65 53 46 66 75 63 74 65 65 58 66 70 79 88 92 94 97 98 97 98 99 97
13 14 15 17 18 22 24 33 40 52 57 50 50 60 69 70 72 68 70 64 72 74 77 86 92 92 95 96 96 96 96 98
13 14 14 16 20 22 22 29 34 43 55 50 56 53 65 64 67 69 64 71 71 74 82 90 89 94 95 93 87 96 95 95
26 25 21 15 17 22 26 26 31 39 51 50 51 56 56 54 56 66 73 66 66 78 86 81 92 92 93 92 88 92 94 91
30 27 25 20 18 21 26 29 31 37 50 54 56 61 53 51 54 64 74 73 71 66 84 91 89 90 92 94 90 89 85 84
38 39 32 25 22 23 25 30 32 37 51 53 55 57 53 54 56 55 55 70 65 66 74 84 95 92 88 93 92 94 89 83
45 49 46 31 26 23 22 25 34 35 50 52 54 54 51 50 54 48 48 58 63 64 73 78 82 87 93 92 94 95 93 93
52 57 60 50 31 24 28 34 35 36 55 58 60 60 55 52 54 51 49 52 61 67 65 67 89 87 90 94 94 95 96 96
60 62 66 61 37 28 40 42 38 54 72 74 67 60 56 54 56 55 55 62 64 68 71 74 78 86 90 92 94 92 94 95
65 67 72 68 62 37 47 48 47 73 80 81 70 67 59 56 57 57 65 73 65 67 71 88 94 95 94 92 89 91 93 92
61 71 74 75 82 63 69 69 76 74 83 84 70 70 62 59 58 60 66 74 65 65 68 80 80 84 89 93 96 94 95 96
58 70 79 79 84 87 79 81 87 86 85 84 77 75 69 62 57 64 71 67 69 64 64 73 73 76 83 89 88 88 87 84
64 74 83 82 84 88 91 88 87 88 86 85 87 85 77 64 53 66 74 71 68 69 67 72 77 72 72 71 72 76 76 72
77 75 86 86 86 88 89 94 92 90 90 92 93 89 80 66 61 69 72 73 72 69 72 74 75 77 68 72 70 78 74 71
83 84 88 90 86 88 88 90 92 88 90 95 92 85 76 77 73 75 76 74 70 73 73 74 74 64 93 95 86 69 68 70
99 99 98 95 92 89 91 90 87 89 90 89 89 89 91 93 85 79 76 80 76 74 75 75 85 81 96 97 97 73 80 75
100 100 99 96 93 90 89 87 88 87 90 90 89 88 90 90 90 93 94 93 94 92 93 89 87 84 96 97 98 80 82 90

GFSFLT1_sfc_rhum_108.txt.gz
RH
13 14 11 10 14 26 52 64 68 74 70 68 66 73 71 71 72 76 79 76 83 86 89 89 88 95 98 97 95 96 94 95
14 19 22 22 24 29 43 63 70 71 70 69 68 71 77 80 74 71 77 76 81 86 90 89 91 96 95 97 97 98 99 94
15 19 22 28 26 32 39 55 67 66 67 65 65 68 81 80 86 80 76 77 81 84 90 94 94 96 99 99 98 98 99 98
17 17 21 33 32 38 33 42 63 65 70 67 64 78 84 82 81 80 77 77 78 84 90 93 95 94 97 98 97 97 99 99
18 20 23 29 35 39 32 36 48 60 70 68 69 77 85 80 77 74 75 78 78 85 88 91 92 94 96 95 92 97 98 98
29 29 29 28 32 36 44 35 38 52 66 64 66 71 73 76 73 78 79 80 81 81 88 90 94 94 94 94 93 98 97 96
39 41 40 34 34 36 41 40 35 44 64 68 66 70 70 73 74 81 81 77 82 85 86 91 93 91 95 94 92 94 94 98
46 48 51 54 58 53 38 32 32 41 60 68 65 67 70 70 71 75 80 78 79 84 87 91 91 90 94 92 93 93 93 96
50 54 58 60 61 61 76 29 29 37 54 64 65 65 66 64 66 69 72 75 80 81 86 91 91 91 95 94 95 96 94 94
55 58 63 68 65 70 74 64 28 36 49 62 65 68 68 64 69 69 69 73 71 79 81 87 91 91 91 93 94 95 96 95
58 61 68 68 67 72 82 55 31 42 54 62 64 68 66 68 70 73 72 74 73 81 81 81 89 91 94 94 96 95 97 98
58 64 67 70 69 75 86 59 48 62 69 74 77 72 73 74 71 72 77 79 79 82 81 82 94 93 94 96 96 95 96 96
58 63 70 76 74 80 85 86 84 81 78 83 83 82 78 80 77 76 80 81 79 78 82 90 89 94 94 97 97 94 95 96
68 66 72 80 81 82 85 90 93 90 87 87 87 86 88 83 74 76 79 79 78 78 80 84 88 91 94 95 94 95 94 94
76 80 77 83 84 84 86 89 92 94 92 90 94 93 88 85 79 78 83 80 80 79 78 80 84 83 85 88 91 93 93 92
82 83 86 83 87 87 86 88 89 90 93 96 96 94 90 86 84 83 85 83 80 80 83 84 85 83 80 86 85 90 88 88
91 91 89 91 87 91 88 89 89 88 90 93 92 95 93 92 87 86 89 85 83 83 82 86 89 73 96 97 95 85 83 84
99 99 98 95 93 92 94 90 87 88 90 89 90 92 93 95 93 90 92 91 88 90 90 87 85 84 96 96 98 84 95 94
100 100 99 100 97 93 91 87 88 90 90 90 89 89 92 92 92 94 95 94 95 94 92 88 88 88 96 97 97 90 92 91

GFSFLT1_sfc_rhum_114.txt.gz
RH
18 20 19 18 18 46 63 70 75 79 78 91 90 91 93 90 89 93 94 94 95 96 98 97 97 97 98 99 97 96 97 97
16 16 15 22 22 41 64 70 74 79 82 92 92 91 93 94 91 92 92 94 94 96 97 97 98 96 96 97 97 98 99 96
21 22 22 26 28 44 65 68 75 75 77 76 84 85 96 92 96 94 90 93 95 96 96 96 97 98 98 97 97 99 99 99
50 63 72 72 75 73 78 73 77 73 72 87 97 98 98 99 98 96 94 91 93 95 95 96 97 97 94 95 96 95 98 99
66 70 73 74 74 68 68 76 84 75 74 81 90 85 90 88 90 92 95 92 94 95 96 96 97 97 97 97 95 95 95 98
71 72 71 72 73 75 70 71 78 89 87 79 82 80 77 95 93 95 92 94 94 95 96 97 97 98 97 97 96 96 95 94
70 67 66 70 72 74 74 76 76 82 90 93 90 88 90 95 93 93 93 93 96 97 97 97 97 97 97 97 93 95 95 95
72 74 74 72 75 76 73 78 82 81 84 87 89 84 92 92 91 88 93 94 95 97 96 97 98 96 96 95 94 95 96 95
74 74 75 76 74 75 77 75 78 82 88 87 86 81 90 85 90 89 91 91 90 96 96 95 96 95 94 94 94 95 97 97
82 78 78 78 76 76 76 76 76 78 84 92 81 85 90 86 87 90 89 90 91 96 95 96 97 95 93 95 95 95 97 97
79 78 78 77 76 75 74 77 80 80 85 92 80 85 84 88 88 92 92 91 90 97 96 96 96 94 94 94 93 93 97 98
79 78 76 75 76 75 78 80 83 84 85 93 94 86 86 89 88 88 90 92 91 95 96 96 96 91 95 96 94 93 97 96
80 81 79 80 82 81 82 84 87 87 86 91 97 98 96 92 90 89 90 90 89 92 95 94 94 94 96 95 97 96 96 98
88 86 89 90 84 85 84 86 88 84 84 88 93 95 98 98 96 92 91 91 91 91 96 96 91 95 94 95 96 97 96 95
88 91 92 92 93 87 86 87 86 85 84 87 91 94 95 98 97 95 94 92 91 90 94 96 96 96 96 96 96 97 96 96
87 89 93 94 95 94 86 87 88 85 86 88 91 89 89 93 97 96 93 92 91 89 93 96 97 97 96 98 96 97 97 97
85 86 88 94 95 95 94 88 89 86 87 89 88 88 88 92 93 96 94 93 92 94 95 96 93 85 98 99 100 98 98 98
92 93 94 95 96 95 96 92 86 89 89 87 87 88 90 91 90 92 94 96 96 95 93 90 91 90 97 97 99 97 98 98
88 92 92 90 86 88 95 90 91 91 93 91 89 90 91 91 91 93 96 95 96 96 95 93 94 92 98 98 100 93 94 94

GFSFLT1_sfc_rhum_117.txt.gz
RH
19 20 19 18 48 66 73 84 87 90 87 94 98 99 98 98 97 97 96 94 96 97 98 98 98 99 98 99 98 97 96 96
20 19 20 26 27 40 74 84 84 89 92 98 98 98 98 98 97 95 96 94 96 98 98 98 98 97 97 98 98 98 99 98
40 67 73 87 85 62 67 77 79 84 82 84 87 88 96 96 98 97 95 96 96 97 97 98 98 96 98 98 98 99 99 98
70 70 79 81 84 86 85 86 76 80 78 85 99 98 99 100 99 95 94 94 96 95 96 97 98 97 97 97 97 97 99 99
72 75 79 81 81 80 80 80 92 90 88 90 94 90 95 91 88 88 93 92 94 95 95 96 97 97 97 96 95 96 96 98
76 75 74 76 79 82 81 81 84 84 88 91 95 95 94 96 96 94 96 96 93 95 96 97 97 97 95 95 92 97 96 95
74 71 70 75 76 78 78 80 82 83 88 90 94 94 95 98 99 98 96 97 97 96 96 97 96 98 98 98 97 96 96 96
83 84 81 77 79 79 76 77 80 82 85 90 87 93 94 92 94 95 97 97 97 96 96 98 97 97 97 97 96 97 97 97
79 78 79 81 78 79 81 80 77 76 80 84 87 86 93 89 79 87 92 93 93 92 93 94 96 97 95 94 96 96 97 98
78 77 78 78 79 81 81 79 78 79 81 82 86 95 91 94 92 92 90 91 91 96 93 96 97 97 94 95 96 97 98 96
83 81 79 78 78 79 81 78 81 81 81 81 85 91 89 92 94 95 94 93 92 96 94 95 98 96 94 94 96 95 96 96
86 84 83 80 77 78 82 82 84 85 84 87 90 92 93 93 94 94 92 95 96 96 93 93 96 97 96 96 95 95 96 96
82 83 84 87 85 83 83 86 87 87 84 87 91 91 92 95 96 94 96 96 95 95 95 97 96 94 95 96 96 94 95 95
81 82 88 90 91 90 85 85 89 83 82 86 90 91 93 95 96 97 96 96 96 96 96 96 94 95 94 93 94 94 93 93
83 84 88 91 88 90 87 86 84 85 82 86 89 91 92 93 94 98 97 96 96 97 96 97 94 94 92 93 94 96 95 94
86 87 88 89 89 90 86 85 84 83 85 87 89 87 87 88 92 93 96 97 96 95 97 98 96 94 96 96 97 98 98 98
85 85 86 89 90 87 85 85 85 82 84 88 86 86 86 89 89 90 89 93 95 97 97 98 99 94 99 100 99 98 97 98
91 93 93 91 91 88 87 85 82 84 86 84 86 87 88 90 88 88 92 94 93 94 96 95 96 93 98 98 100 98 98 98
90 94 94 93 88 86 86 81 84 87 88 87 91 90 89 89 90 94 94 95 96 98 97 96 96 92 98 99 100 99 98 97

GFSFLT1_sfc_rhum_120.txt.gz
RH
19 23 22 37 60 72 81 90 90 91 92 96 98 99 98 98 98 97 97 97 97 98 99 99 98 98 99 99 97 98 97 95
34 65 74 49 47 35 84 91 93 94 93 97 94 93 96 97 97 95 97 96 97 98 98 98 98 97 97 94 98 98 99 97
68 73 75 81 85 87 81 86 94 96 90 89 90 91 93 94 95 97 96 96 97 97 97 98 97 97 98 97 98 99 99 98
74 75 78 84 86 88 84 89 94 94 88 91 99 98 99 99 99 98 97 95 96 96 97 97 98 95 97 98 97 97 98 98
76 75 76 83 84 81 83 83 88 91 93 93 93 92 92 90 91 94 95 95 96 95 96 96 96 94 97 96 95 96 95 97
86 82 78 74 79 81 81 76 83 88 92 94 96 95 95 97 97 95 95 98 96 96 96 97 97 95 94 96 97 96 95 95
79 76 77 77 75 77 78 74 75 83 89 91 95 96 97 98 98 98 97 98 98 97 96 97 97 96 96 94 94 95 96 95
81 82 80 78 78 78 76 78 82 77 82 87 88 92 96 96 95 97 98 98 98 98 97 97 96 95 95 94 94 94 94 94
85 83 80 80 79 79 78 78 80 78 80 81 81 87 94 93 90 96 95 96 95 94 94 93 92 95 97 97 98 96 97 97
89 86 81 80 79 81 82 80 79 79 79 80 83 88 92 93 91 95 92 91 83 82 92 92 92 95 96 98 97 98 97 97
88 85 85 81 79 78 79 79 80 80 79 81 84 87 85 92 94 94 96 94 95 95 94 92 93 94 96 97 97 96 96 97
96 87 82 81 77 78 80 81 84 83 82 85 88 87 88 91 94 86 95 97 96 96 93 92 96 96 98 98 96 96 96 97
99 91 83 82 82 80 82 83 85 86 83 86 88 88 88 91 92 94 97 97 96 96 96 94 95 98 97 97 97 95 95 97
96 87 85 84 82 82 82 84 85 80 81 85 88 89 89 91 92 92 94 97 97 97 96 95 94 96 97 95 93 94 95 95
88 90 88 87 83 82 82 83 83 81 80 84 88 89 88 89 89 90 92 94 97 98 96 94 95 96 94 95 95 95 96 94
90 87 87 87 89 83 81 82 82 81 82 84 87 86 85 86 89 88 89 91 91 90 96 96 96 97 97 96 94 95 94 95
84 84 84 87 89 90 80 83 86 83 84 86 84 83 83 87 88 88 88 88 89 91 93 96 96 94 99 100 97 95 96 97
91 93 93 92 92 90 88 80 82 85 87 85 85 84 86 86 86 89 91 93 91 92 92 92 94 95 98 100 100 98 98 97
91 95 93 94 86 87 84 80 80 86 89 87 86 87 86 86 87 90 93 92 94 96 95 94 93 92 97 99 100 99 99 98

GFSFLT1_sfc_rhum_123.txt.gz
RH
20 20 19 19 26 54 63 71 73 77 73 76 76 80 77 83 82 78 85 84 90 90 88 90 90 91 93 92 89 93 87 85
31 55 58 39 52 55 65 77 76 73 73 79 77 80 83 85 73 74 78 80 87 89 88 90 89 91 94 94 94 96 97 94
44 62 65 69 70 68 59 69 79 79 70 69 71 73 76 83 81 77 77 78 86 83 87 88 91 92 93 95 95 98 96 96
66 65 68 68 72 74 69 67 72 85 76 76 85 88 89 93 89 86 84 79 80 82 84 84 90 90 91 90 94 89 93 96
70 69 68 70 72 71 70 73 73 77 89 84 89 83 84 82 85 88 89 83 78 81 88 87 88 91 93 90 88 90 85 90
78 76 72 70 71 72 70 71 75 80 84 91 91 88 81 73 81 87 92 88 89 86 91 92 93 90 88 92 88 90 89 82
81 75 73 74 72 72 71 73 73 77 82 88 94 92 87 90 86 86 85 93 95 96 94 94 95 95 93 92 87 85 84 85
90 85 82 78 79 77 72 76 79 76 80 84 87 90 92 94 85 89 91 93 97 96 96 96 95 94 93 92 92 88 86 82
92 90 84 81 81 80 80 79 80 78 81 83 84 87 91 90 92 93 92 93 90 86 93 93 89 92 92 93 94 92 92 92
93 87 84 84 84 86 85 83 80 79 80 81 85 85 86 88 89 92 94 90 87 87 91 89 89 88 92 94 95 94 94 93
95 88 81 80 79 82 82 80 79 80 81 82 82 84 83 86 88 91 91 92 91 85 86 84 82 84 93 94 94 93 96 96
98 96 89 75 74 76 79 79 79 80 81 84 84 83 84 86 88 89 93 88 92 90 82 81 80 89 92 95 94 94 96 97
100 99 98 93 79 76 79 81 83 82 81 84 86 86 85 87 88 89 90 94 93 92 92 87 82 86 91 96 97 95 96 97
98 95 97 98 90 78 79 83 81 75 76 82 85 87 87 88 88 87 88 90 92 94 95 95 94 92 92 94 95 95 95 93
86 94 95 96 94 79 77 82 79 76 75 80 85 85 86 87 86 86 88 87 90 90 92 94 94 92 92 92 95 95 94 92
78 81 86 89 90 76 70 78 80 77 77 80 84 82 81 82 86 87 87 88 87 87 88 88 93 93 87 94 95 96 95 95
78 78 78 85 86 82 69 72 78 75 77 81 80 79 80 83 84 84 86 86 87 89 91 90 90 86 96 97 98 97 95 95
86 88 88 88 88 84 77 70 70 75 80 78 80 79 82 85 83 84 84 88 87 88 88 89 92 93 96 96 98 96 98 96
86 92 90 89 82 80 80 76 73 76 82 84 84 83 82 82 82 86 92 89 88 90 88 88 88 87 94 96 95 94 96 97

GFSFLT1_sfc_rhum_126.txt.gz
RH
13 12 9 14 22 21 18 28 53 59 54 56 52 54 63 59 65 63 62 71 76 80 75 79 86 79 87 87 87 86 72 64
13 14 18 39 39 37 23 28 48 54 54 53 52 55 55 56 52 58 62 74 77 80 74 85 86 80 82 86 90 89 88 72
35 37 42 49 50 49 45 37 37 50 50 46 45 47 48 49 51 53 56 61 76 80 78 80 81 71 81 85 87 92 89 85
52 47 48 52 54 57 52 48 46 53 60 50 47 48 51 53 56 53 54 58 63 80 70 70 71 69 76 85 86 91 95 93
69 64 60 62 63 63 60 54 56 75 80 67 63 58 62 58 59 54 56 63 61 62 67 64 66 76 72 77 78 82 83 92
83 76 72 70 72 69 70 69 66 67 85 95 91 69 56 54 65 69 80 77 70 60 64 68 77 78 79 85 87 90 73 76
92 80 76 79 83 81 73 73 73 76 76 87 96 89 70 70 76 78 81 90 90 85 74 82 82 87 89 89 87 86 81 74
96 90 85 83 89 89 84 78 79 78 81 82 85 87 88 89 91 91 87 90 88 90 89 90 90 88 89 86 86 86 82 78
96 95 88 86 86 90 83 82 82 79 81 80 81 82 85 84 87 85 90 93 89 86 90 92 92 90 86 83 81 83 83 80
97 96 93 86 87 86 87 83 82 82 81 79 80 81 82 80 82 80 88 86 88 90 89 91 94 94 88 88 90 90 91 87
96 95 98 85 82 84 82 80 80 82 81 78 76 76 76 80 80 83 87 86 87 88 90 92 91 94 91 93 91 89 88 90
98 97 96 96 76 78 82 80 80 79 78 83 83 80 79 81 82 86 88 88 89 86 87 86 90 92 90 89 89 86 87 90
99 99 98 95 83 80 80 81 81 79 75 80 85 84 82 84 86 86 87 87 86 89 89 87 88 86 82 87 86 82 90 96
97 96 98 97 97 91 94 84 81 80 75 79 84 86 85 86 86 86 85 86 86 86 86 92 90 91 91 89 86 87 90 93
83 97 98 98 100 98 96 94 83 79 75 77 81 82 83 84 82 83 85 84 86 86 87 87 88 85 85 88 89 95 95 94
70 72 78 87 92 90 83 83 76 73 74 75 77 75 76 79 83 81 82 83 82 84 86 87 87 83 84 92 92 91 94 93
71 75 74 76 79 77 66 64 71 70 73 75 71 70 68 75 79 79 79 78 81 81 86 86 89 84 94 95 95 89 92 95
83 86 85 82 78 73 74 62 62 67 73 74 72 70 70 72 69 73 77 85 81 83 82 83 88 90 92 94 96 91 94 95
81 89 87 84 73 71 71 67 64 72 78 80 76 73 73 71 73 76 77 78 81 83 84 84 84 82 89 90 89 92 95 94

GFSFLT1_sfc_rhum_129.txt.gz
RH
25 25 21 14 15 21 30 31 36 47 53 65 51 49 50 48 44 48 53 66 77 64 71 77 73 58 70 81 83 79 65 55
34 36 34 31 33 38 38 40 46 36 50 72 58 53 52 55 48 49 50 54 78 79 69 74 80 75 79 83 88 85 74 65
43 45 45 45 43 40 44 42 43 41 45 50 59 48 49 50 50 52 54 57 68 73 74 64 81 80 83 88 88 89 77 76
56 56 58 57 57 56 52 49 46 44 52 49 52 47 48 49 48 47 53 56 63 74 78 63 77 76 69 84 86 82 82 88
61 74 70 69 68 68 67 62 59 56 70 90 66 56 45 44 46 44 45 54 55 66 72 68 71 74 68 72 81 82 79 87
64 80 80 75 76 81 79 72 66 66 81 90 83 72 46 46 52 57 58 59 58 57 74 68 68 64 71 68 82 85 80 72
61 68 82 80 83 86 86 80 75 71 83 89 87 81 84 92 94 84 82 86 80 76 69 73 70 69 74 71 76 85 80 79
76 75 94 88 88 88 90 84 82 80 83 89 92 91 95 93 95 97 92 88 86 78 81 87 86 77 77 77 81 82 85 81
86 80 94 95 92 90 90 90 88 84 80 87 90 88 91 92 94 96 94 92 94 86 85 84 91 92 89 85 84 85 85 84
92 87 96 97 96 93 94 90 88 89 87 84 87 88 88 88 87 89 89 85 84 87 91 91 88 93 94 93 93 86 87 86
96 96 97 96 96 95 91 90 87 85 85 87 88 86 84 85 85 86 86 84 83 84 84 85 78 83 91 94 94 92 88 89
100 100 99 98 98 93 90 88 86 83 80 83 84 83 83 81 83 84 84 85 86 85 87 88 80 82 82 92 95 93 95 90
100 100 100 98 97 96 91 90 87 84 86 85 88 83 80 80 81 83 84 84 83 82 82 83 82 85 93 95 96 94 96 94
100 99 99 99 98 98 96 94 86 84 75 75 80 81 83 84 82 81 79 79 81 81 83 86 84 86 86 88 88 93 94 92
80 89 96 99 100 100 98 96 96 84 86 76 78 77 77 80 79 79 81 78 81 82 85 86 87 85 85 87 88 90 91 92
68 70 71 79 89 89 90 85 81 80 80 85 79 74 77 78 81 83 81 82 83 83 84 85 87 86 87 92 92 92 92 93
69 71 71 72 72 77 73 75 73 74 76 75 72 71 70 76 76 77 79 78 79 80 86 86 87 83 90 90 94 91 87 90
77 82 82 74 72 68 72 66 67 71 74 71 68 70 70 73 71 73 75 78 76 78 78 78 82 86 88 90 87 86 90 92
70 85 82 76 63 62 65 67 68 71 76 75 71 68 70 70 74 76 78 79 80 79 79 79 77 73 83 86 83 80 88 89

GFSFLT1_sfc_rhum_132.txt.gz
RH
33 37 40 40 44 49 52 51 50 56 52 66 75 78 68 62 60 62 70 78 78 80 77 84 86 78 83 87 87 87 83 80
35 41 45 48 52 56 56 58 58 53 52 64 73 80 79 77 58 60 67 75 81 81 81 86 82 85 80 87 94 94 94 88
41 45 51 59 60 62 63 60 61 59 58 58 74 81 79 73 62 58 62 75 83 76 83 83 81 74 86 86 89 93 88 88
50 51 54 58 62 68 66 66 68 68 67 64 80 86 86 79 74 61 63 66 80 80 79 80 82 81 77 85 86 85 96 88
53 54 57 64 65 69 70 72 73 69 70 74 85 93 93 75 71 64 60 64 72 81 80 77 83 80 78 80 86 85 86 84
59 62 60 61 65 75 76 75 76 72 76 82 93 94 92 81 68 68 63 67 68 75 80 82 83 84 82 84 86 89 84 78
60 64 67 69 78 85 83 82 78 77 79 86 94 96 96 90 93 83 69 78 76 78 82 83 80 83 86 84 87 87 88 85
74 76 80 78 83 89 89 87 84 84 86 90 92 94 96 97 96 98 97 96 96 97 89 90 88 85 82 83 87 87 87 86
83 78 82 88 94 89 95 95 91 88 89 91 91 91 94 95 97 97 97 97 94 97 97 94 92 93 90 92 87 90 90 91
87 81 87 97 96 96 97 96 96 89 93 92 93 90 91 94 95 96 96 96 92 95 95 94 92 96 95 96 98 97 93 91
89 89 97 95 98 96 97 97 100 93 91 92 90 91 89 90 90 92 94 94 95 93 92 90 93 92 92 98 98 96 97 96
95 92 97 99 99 97 98 98 100 98 91 92 88 87 90 88 91 90 91 90 90 88 86 84 85 88 87 92 95 95 97 94
96 97 95 98 98 98 98 97 96 100 88 86 86 82 83 89 87 88 85 86 84 84 84 82 82 84 87 90 90 91 94 96
94 94 96 96 97 99 99 99 97 96 84 87 87 84 82 84 83 84 82 82 82 80 81 83 83 85 86 88 90 91 92 94
83 89 91 95 98 99 100 99 99 97 95 90 88 88 85 82 81 80 82 81 84 82 82 82 83 83 84 86 86 88 87 86
68 72 77 83 90 90 90 84 90 94 97 96 96 88 82 78 80 79 78 80 78 79 82 84 87 83 84 89 86 88 88 88
67 70 71 71 71 81 81 84 83 79 80 83 77 78 76 77 76 77 77 77 78 78 81 80 86 85 91 92 89 91 86 88
76 76 80 70 65 66 73 73 74 77 80 75 73 72 74 77 74 72 78 79 78 80 81 80 83 84 85 87 84 82 86 88
69 87 82 71 60 60 65 66 72 74 76 74 72 73 74 74 76 77 78 76 78 80 80 80 81 74 80 82 82 82 86 86

GFSFLT1_sfc_rhum_135.txt.gz
RH
42 44 46 48 53 56 59 61 64 64 65 64 67 80 83 86 89 86 88 82 82 81 89 86 85 87 90 92 91 95 94 93
45 47 48 50 54 58 61 67 67 67 70 73 74 81 83 86 86 72 85 81 83 86 92 93 84 85 89 91 96 96 96 94
52 52 55 54 55 58 61 67 69 69 71 73 78 81 84 84 82 82 89 80 81 78 83 93 92 89 94 95 94 98 97 96
62 58 61 62 59 58 67 72 70 73 74 72 78 83 82 83 81 84 74 74 84 79 78 88 88 88 92 92 90 90 96 97
66 64 68 69 60 62 75 74 72 68 72 78 86 88 81 81 79 77 75 72 83 80 78 85 82 84 81 92 84 80 84 94
77 71 72 64 61 72 72 75 75 73 76 83 90 94 89 82 84 84 86 82 75 86 80 84 88 82 80 77 79 80 82 86
77 68 70 72 74 77 80 84 83 78 78 84 91 94 94 94 88 92 94 92 82 84 87 84 90 87 87 83 80 86 88 87
81 79 84 82 84 90 89 88 88 84 87 87 90 93 95 97 97 99 97 96 94 96 96 96 94 92 87 85 92 90 91 90
83 83 88 90 89 95 96 92 91 90 92 89 90 91 94 96 94 96 98 98 98 97 97 96 94 95 95 91 92 94 92 94
87 88 91 94 96 97 97 96 93 95 96 90 90 92 93 96 92 94 95 95 95 96 98 96 96 96 96 98 98 99 98 96
92 93 95 97 98 97 93 94 99 97 96 93 92 93 93 92 90 94 95 94 92 94 95 94 93 94 96 95 96 96 97 98
96 95 94 98 94 97 93 96 96 99 98 96 98 93 94 91 90 89 91 92 93 93 92 90 91 92 93 93 92 92 93 94
97 97 92 93 95 95 97 98 94 99 100 98 99 91 88 90 88 90 85 86 87 87 87 90 90 89 90 91 91 90 92 92
95 92 94 97 93 94 98 98 98 100 99 100 98 92 84 83 89 86 84 86 86 85 85 89 90 89 88 86 88 87 87 88
79 85 87 89 88 89 91 94 98 99 99 96 99 97 86 82 80 82 86 80 83 86 87 87 87 88 87 82 81 84 85 86
73 75 79 77 82 85 86 84 84 89 92 92 95 86 80 80 80 79 80 81 81 79 83 84 84 84 82 89 84 86 86 86
71 75 77 70 69 72 78 86 85 82 76 81 88 83 84 80 79 79 77 77 78 79 78 78 82 78 83 86 84 83 86 88
83 85 86 76 77 69 73 75 70 81 84 75 76 77 79 86 76 78 80 83 79 79 79 78 79 78 79 80 85 83 85 87
84 92 88 78 70 70 70 69 73 71 77 76 71 77 77 79 78 79 81 80 82 82 82 82 77 70 75 77 78 80 85 85

GFSFLT1_sfc_rhum_138.txt.gz
RH
52 52 53 54 55 54 54 57 63 66 68 69 71 73 79 82 88 88 82 83 83 90 84 86 91 90 92 93 91 95 93 90
54 54 56 59 59 58 60 64 69 72 74 79 78 83 82 83 82 76 75 81 87 90 91 89 90 88 89 92 92 96 96 95
61 61 62 65 64 62 63 70 70 70 72 73 71 72 78 85 79 79 75 76 85 92 90 92 90 90 90 95 92 94 94 93
74 69 69 68 68 68 66 68 69 72 69 68 72 74 77 85 82 77 67 73 78 88 93 89 91 89 92 93 88 89 93 98
77 75 74 75 73 68 67 71 71 69 74 78 86 88 88 83 85 75 74 75 81 81 84 84 88 89 88 87 87 87 88 94
81 79 76 76 75 68 71 76 73 70 74 83 90 92 90 87 86 86 82 82 79 83 83 83 86 91 87 85 88 89 88 87
72 76 76 74 74 75 75 80 83 76 78 87 93 94 92 93 90 90 90 89 87 92 89 91 93 93 90 92 89 86 87 82
84 88 86 77 78 83 85 85 94 83 92 94 91 90 92 94 93 91 94 96 98 97 96 94 94 94 95 89 93 91 92 85
91 90 90 82 83 84 92 95 95 94 95 95 94 89 92 92 94 95 97 98 97 95 97 96 95 94 98 97 97 97 96 96
94 91 91 91 91 88 98 97 96 96 95 96 96 95 92 92 92 93 96 95 93 94 94 96 96 96 98 99 98 98 96 96
94 94 92 92 92 94 97 98 100 96 89 96 96 95 94 92 91 94 94 93 92 92 93 93 93 94 96 97 97 94 93 96
97 95 93 92 90 91 98 98 99 98 97 96 97 96 96 96 95 94 94 92 89 90 90 92 92 92 92 94 93 92 94 96
96 96 95 92 89 90 97 98 98 98 100 100 99 100 100 99 99 96 89 91 88 87 88 88 89 90 92 93 94 93 93 93
92 92 94 91 91 90 91 97 96 97 99 99 100 99 100 100 97 89 82 85 93 89 85 87 91 91 90 94 97 94 97 94
88 93 93 93 91 88 88 89 89 89 93 91 99 100 99 91 91 87 85 79 82 85 83 86 86 86 89 92 92 91 88 88
78 84 90 86 84 83 82 79 84 84 85 88 93 88 91 85 85 78 78 80 80 78 80 80 81 82 82 86 85 87 87 86
72 78 82 78 72 73 76 76 77 72 74 82 85 84 81 85 85 82 77 76 78 79 79 80 82 76 81 81 82 85 82 85
75 84 86 78 82 76 74 73 72 74 71 67 74 80 81 80 77 78 79 77 76 80 81 77 79 78 78 77 79 74 77 81
70 91 86 78 70 75 71 75 70 79 76 71 64 66 74 76 74 79 81 78 79 82 83 81 78 70 76 77 74 80 84 80

GFSFLT1_sfc_rhum_141.txt.gz
RH
59 60 59 60 60 59 60 63 68 70 70 71 73 75 74 81 88 87 84 84 81 90 93 94 91 93 92 92 92 94 94 95
63 62 63 63 65 67 68 69 70 72 77 80 77 73 68 69 78 82 81 83 81 89 93 92 92 91 89 92 94 95 98 96
69 67 66 69 72 74 68 65 67 68 68 70 73 75 73 69 69 79 83 81 84 86 93 90 97 96 90 95 95 95 96 97
76 71 72 74 78 77 67 66 68 68 67 67 70 73 76 75 71 69 76 78 80 83 81 86 90 96 94 92 94 92 94 97
72 75 78 80 73 71 72 68 70 72 74 77 85 90 95 82 80 74 79 77 77 80 83 86 89 93 97 93 91 93 92 95
80 81 81 70 66 69 69 71 73 74 76 82 94 95 92 86 84 84 77 84 87 84 84 84 88 90 93 90 87 91 91 90
83 80 80 72 68 70 73 78 79 77 84 91 96 96 96 94 86 90 88 85 82 90 88 90 96 92 98 91 93 87 91 90
91 91 90 83 78 77 80 86 87 79 82 84 94 96 96 96 93 95 95 94 95 97 96 97 98 96 96 97 95 98 93 94
94 92 93 85 84 86 86 87 88 88 94 94 90 95 96 95 91 94 95 96 97 95 98 97 97 97 96 98 96 98 98 99
94 92 92 86 89 89 92 95 92 93 96 96 96 96 96 96 90 92 93 93 92 96 96 96 95 96 95 96 98 98 98 99
94 93 94 87 90 90 89 92 95 96 96 96 96 96 95 96 95 93 95 95 92 93 93 93 93 94 93 95 96 95 95 98
95 94 93 95 93 92 90 94 96 96 98 97 98 96 96 96 94 96 96 96 95 92 90 91 91 91 91 94 93 90 92 94
95 93 94 94 94 93 91 91 93 98 99 99 99 99 98 96 95 97 98 98 95 91 90 88 88 89 90 91 93 90 92 93
92 92 94 94 93 94 91 92 89 88 90 94 92 96 96 97 97 96 96 97 95 96 88 91 88 89 90 90 91 94 96 96
91 93 93 93 92 93 87 88 85 84 87 87 91 95 93 92 96 96 93 93 92 91 92 86 87 83 84 92 96 95 94 96
77 85 90 90 90 87 83 82 78 78 81 85 88 89 93 85 86 90 88 85 85 89 78 80 80 79 78 82 82 85 87 90
72 76 75 80 81 80 78 79 79 71 66 68 77 77 81 88 83 82 81 74 73 77 77 78 80 72 81 80 77 81 80 81
76 84 84 79 82 79 80 79 78 73 72 65 65 72 69 73 74 74 79 76 74 74 78 75 78 76 75 78 81 78 81 84
71 91 87 80 76 78 77 77 81 79 75 70 68 68 69 68 69 69 72 73 76 81 77 76 74 68 72 74 78 83 81 83

GFSFLT1_sfc_rhum_147.txt.gz
RH
53 51 51 52 54 57 58 59 62 63 58 59 57 57 57 56 57 58 68 66 70 75 75 76 74 73 80 88 95 92 86 85
51 53 54 57 57 59 60 62 63 61 60 67 68 69 63 64 63 66 69 69 69 73 74 76 74 74 74 77 82 95 97 90
55 55 57 61 62 61 60 60 63 62 60 63 68 73 72 71 66 65 71 71 73 70 72 74 76 81 82 80 79 84 91 97
59 59 62 62 62 63 63 62 64 65 67 65 68 69 70 72 71 71 68 71 73 78 71 75 77 76 78 81 80 81 90 88
60 62 64 65 64 62 63 66 63 62 67 68 73 78 83 76 78 79 78 74 76 77 81 81 81 84 81 78 68 77 84 88
62 63 69 63 60 63 65 65 64 66 67 70 69 79 77 71 80 84 79 78 79 80 84 85 89 90 88 84 80 79 82 86
62 63 64 61 59 66 65 67 65 66 68 67 75 80 82 84 84 86 85 86 86 84 85 90 90 92 92 85 84 83 85 85
67 66 65 66 68 72 70 74 71 69 71 68 75 78 81 83 86 91 90 91 92 91 90 91 92 93 93 88 85 82 87 90
68 68 69 71 74 75 78 79 78 74 72 72 77 75 82 79 84 92 94 93 92 88 89 89 90 90 93 92 88 82 84 92
73 69 75 82 80 79 84 83 82 80 78 76 78 80 80 86 84 90 94 88 84 86 87 89 89 90 91 95 98 98 96 95
79 78 84 81 85 81 82 86 94 82 77 78 80 80 77 80 80 89 84 86 92 87 86 88 88 90 92 93 94 93 94 96
89 86 86 89 89 83 82 89 91 92 85 82 84 82 81 80 84 89 92 92 96 92 82 83 92 89 94 93 90 90 92 93
90 89 88 90 87 88 84 84 81 89 90 90 88 91 90 90 94 95 96 97 95 95 90 86 88 92 96 96 93 91 92 95
87 86 89 91 89 89 87 86 81 81 84 87 86 89 89 91 91 90 90 93 93 91 94 94 95 95 91 94 92 92 93 95
74 84 86 89 90 88 86 83 83 76 80 69 86 89 76 76 86 87 85 90 93 92 94 94 93 94 95 96 96 93 92 94
56 58 61 73 79 74 71 62 61 68 74 70 65 63 74 59 66 72 75 68 87 89 92 93 93 93 93 88 86 90 93 92
55 55 54 57 54 58 58 59 55 50 50 53 60 54 54 62 56 60 58 54 55 68 72 75 92 88 88 78 79 83 82 80
59 64 66 62 59 56 58 54 52 53 52 50 49 50 51 54 52 53 55 56 53 55 58 63 66 70 66 72 73 58 66 67
66 80 75 69 63 61 61 53 54 55 56 53 50 50 50 51 52 54 56 52 55 56 58 56 57 56 69 60 57 52 63 69

GFSFLT1_sfc_rhum_150.txt.gz
RH
38 38 39 38 39 44 45 46 52 54 45 45 42 45 46 45 46 47 57 55 65 66 65 70 68 56 51 48 54 67 90 90
37 41 41 43 45 46 47 50 52 48 44 47 47 51 50 49 47 55 58 58 65 65 64 70 73 67 57 56 54 59 73 89
40 42 44 48 48 49 47 47 50 47 46 48 52 53 53 51 48 50 56 64 71 67 70 66 74 74 71 67 64 59 54 81
41 44 48 47 48 50 48 49 49 51 57 49 49 49 49 49 50 53 57 62 67 75 77 78 78 74 76 74 68 68 78 56
42 44 48 47 48 50 49 51 50 49 58 58 62 58 61 57 57 57 54 60 68 76 81 81 85 85 85 77 70 73 66 75
45 46 48 45 46 49 51 52 51 55 57 59 62 64 60 59 61 66 61 64 73 78 82 85 87 88 90 89 88 85 67 57
46 44 45 46 46 51 52 55 51 56 57 59 67 68 69 69 69 69 67 72 78 80 82 85 86 87 89 87 86 89 85 67
47 44 42 48 53 54 54 56 53 56 62 61 64 65 68 72 75 75 76 81 84 84 84 87 87 86 88 88 92 91 88 76
51 48 48 54 58 56 59 60 56 56 65 65 64 66 69 69 72 76 84 89 92 87 86 85 84 86 87 87 92 92 88 82
56 51 57 62 62 62 69 67 66 60 67 68 70 68 70 73 72 76 90 84 88 89 85 85 83 85 84 86 90 93 92 94
61 59 68 65 76 63 69 74 89 65 62 70 72 72 72 73 72 79 79 79 81 83 86 84 82 82 80 84 89 90 92 92
95 77 79 89 96 64 68 82 100 96 74 71 73 77 77 75 79 83 86 80 82 88 82 86 90 84 83 85 91 91 91 92
99 100 94 100 83 85 80 81 72 98 98 90 88 93 98 85 93 89 97 96 90 92 88 93 92 90 91 90 92 94 93 92
99 96 94 95 87 90 87 90 81 82 82 90 90 93 100 99 100 100 100 98 97 95 92 92 95 95 94 95 96 93 91 92
67 90 90 92 95 89 85 88 85 71 74 54 81 88 64 70 99 92 90 92 92 92 93 94 91 91 92 91 94 96 95 95
44 42 48 67 77 59 50 45 48 53 69 57 52 51 61 46 50 56 59 49 63 83 84 90 92 92 93 92 88 94 94 94
39 36 37 36 38 39 42 42 40 35 36 39 45 43 42 49 43 44 43 40 40 44 45 51 88 84 72 70 76 86 91 85
44 45 46 42 39 38 37 36 37 38 37 36 36 38 39 42 40 38 40 42 40 41 40 38 46 59 60 57 54 55 67 78
52 77 61 52 42 41 41 38 40 41 41 38 36 37 38 40 39 40 41 39 41 42 44 41 39 48 62 49 46 36 48 56

GFSFLT1_sfc_rhum_153.txt.gz
RH
29 30 32 31 34 39 40 41 48 50 41 41 38 41 41 42 42 42 52 50 56 65 66 68 65 63 59 54 58 48 50 62
29 34 35 37 39 42 41 45 47 42 40 44 44 46 44 44 42 45 50 52 60 68 71 73 70 68 66 71 72 67 54 52
32 34 37 42 42 44 42 42 45 43 42 43 45 46 45 43 41 46 48 53 60 61 71 76 77 79 78 76 75 76 69 56
33 35 40 40 43 46 42 44 44 47 51 42 45 45 44 45 47 45 49 55 63 68 75 78 80 81 85 84 80 74 80 69
33 35 39 40 44 46 45 46 44 46 51 52 58 52 55 53 52 52 53 58 61 70 79 80 82 83 84 83 78 85 74 76
35 37 39 39 42 44 47 45 43 50 51 56 55 59 56 54 58 62 60 61 63 69 78 80 83 85 86 86 85 84 84 85
36 37 38 40 42 45 46 46 40 50 52 55 61 64 64 65 67 67 66 67 66 71 74 80 83 84 86 85 84 86 83 78
36 34 33 40 46 46 45 45 38 48 53 56 60 62 63 66 68 69 76 76 77 80 80 84 84 83 84 84 87 87 87 88
40 38 38 40 46 48 50 43 44 44 54 60 61 62 62 63 67 71 78 82 83 81 84 84 83 82 84 86 89 90 90 94
46 42 46 48 50 52 60 54 60 49 54 58 65 67 66 71 69 72 81 75 73 81 82 90 88 85 82 83 89 89 88 93
51 49 54 56 67 52 60 64 75 58 53 54 55 66 68 68 66 71 75 76 71 73 81 86 90 88 89 83 87 85 88 91
88 61 65 76 92 52 58 70 100 94 68 64 64 67 65 63 66 68 73 74 73 76 78 85 92 91 92 89 92 90 84 89
100 100 85 100 68 77 67 72 66 100 100 83 79 89 97 76 85 78 82 85 78 75 74 75 85 94 94 96 95 95 92 91
99 91 98 100 78 91 86 89 71 72 80 96 90 96 100 100 100 100 100 95 94 90 90 87 88 91 90 95 98 96 95 94
71 88 91 98 98 86 85 92 82 58 61 50 97 99 52 61 97 81 93 78 91 88 87 87 85 84 88 89 90 92 91 95
52 49 53 67 80 54 42 42 48 48 58 46 45 44 49 40 44 48 49 43 48 81 77 83 82 81 80 80 79 90 92 91
42 35 32 33 35 35 35 36 33 30 32 34 39 37 37 42 39 41 40 39 38 39 39 45 74 69 54 54 60 77 87 88
40 36 36 32 31 31 33 32 32 32 32 30 32 34 36 38 35 36 39 42 41 42 39 38 46 56 55 49 50 49 56 69
43 58 47 40 34 33 35 32 34 36 35 32 32 34 36 38 38 39 40 41 42 42 45 42 41 52 67 54 51 40 45 54